GFSMW_850_spd_075.txt.gz
Wind_Speed
20 22 23 21 22 27 29 25 18 17 19 19 18 18 19 21 22 19 18 18 16 18 16 13 14 14 12 12 11 9 6 3 4 4 6 9 13 7 7 8 9 9 10
23 22 23 23 27 30 28 22 18 15 17 14 16 17 17 18 19 16 20 21 19 19 16 15 14 15 13 14 12 9 7 5 5 2 7 8 7 9 9 9 9 11 11
27 27 27 28 28 29 26 23 20 18 18 16 16 16 18 16 19 17 18 21 20 20 19 17 16 16 14 13 13 10 7 5 5 5 3 6 6 13 12 7 10 10 12
25 27 28 29 30 30 27 25 22 21 19 20 17 18 19 16 16 17 22 20 22 22 19 18 17 18 14 13 12 9 7 6 3 7 8 9 10 8 10 10 13 14 13
28 31 32 32 31 30 29 27 24 21 19 20 23 21 20 16 16 19 22 20 20 23 20 19 19 17 15 15 13 15 9 6 13 11 9 11 12 13 16 19 16 15 15
29 30 31 31 31 33 30 28 26 25 23 25 24 24 22 19 22 27 20 23 23 26 25 21 20 18 16 19 20 14 13 16 14 9 10 11 12 14 16 19 18 18 18
28 29 31 33 33 34 33 31 28 28 26 26 27 27 26 25 28 24 23 27 27 26 24 23 22 21 23 20 15 12 12 14 11 10 11 12 13 14 15 15 18 20 19
29 31 32 33 33 34 35 32 31 29 28 28 29 29 27 28 29 25 22 26 23 25 22 25 23 21 21 21 11 11 13 13 13 12 13 13 13 14 14 15 17 22 22
18 28 32 32 32 33 34 36 32 29 29 29 28 29 28 29 26 22 25 23 22 24 21 22 23 22 28 22 11 11 12 11 12 12 13 14 13 14 15 16 16 18 24
10 19 26 30 31 30 31 31 30 29 28 27 27 29 26 25 25 27 25 24 24 21 23 24 25 32 21 17 15 18 10 12 14 13 14 15 15 16 16 17 18 19 23
4 9 16 22 27 28 28 29 29 28 26 26 24 26 26 23 23 23 23 20 21 26 27 27 24 16 11 17 17 11 12 14 17 16 16 17 17 18 19 20 21 22 24
4 7 10 14 20 26 27 27 26 27 26 22 23 26 20 22 25 24 23 24 27 26 21 14 15 15 17 11 12 13 13 16 18 17 18 18 19 21 22 23 24 26 26
9 8 9 12 15 19 22 23 23 24 24 23 28 25 22 24 24 21 18 22 22 14 6 15 15 9 12 7 12 14 15 17 18 18 19 20 21 23 25 26 27 29 30
10 11 10 12 13 16 19 20 20 21 22 29 28 22 24 26 27 27 22 20 19 15 7 16 12 11 10 13 14 15 15 16 17 18 19 21 22 24 26 27 30 31 31
10 11 12 12 13 15 17 19 20 22 23 22 24 26 28 25 20 15 13 17 13 10 13 16 7 5 10 13 15 12 13 16 17 19 20 22 24 28 31 33 36 33 33
6 5 8 11 13 14 15 17 20 19 21 23 21 24 23 20 20 17 18 13 16 12 9 8 10 10 13 16 19 19 20 19 19 21 22 24 26 28 31 33 33 33 35
7 5 6 10 13 14 20 24 20 19 18 19 20 19 20 23 23 14 16 13 11 9 6 8 10 11 11 16 19 19 20 21 20 22 24 26 26 29 30 32 35 36 36
6 5 8 11 13 15 18 17 20 24 23 19 19 21 22 24 19 16 14 11 9 7 9 8 8 8 9 17 21 21 22 23 22 23 25 28 31 32 32 34 35 36 37
7 9 11 13 15 16 16 17 17 19 19 20 21 22 22 21 17 14 10 7 7 7 6 6 7 8 9 16 22 26 26 25 26 25 26 28 33 35 36 39 39 39 41
11 13 15 17 17 17 19 19 20 20 20 20 20 21 18 15 14 8 6 6 7 7 7 7 7 11 14 15 23 27 29 29 28 27 24 27 29 32 34 36 38 43 37
15 15 16 16 17 18 18 20 21 21 21 20 20 18 16 10 8 8 7 7 6 7 9 14 15 16 15 15 21 23 23 22 26 28 30 29 27 29 31 32 34 37 35
18 16 17 17 18 18 20 21 21 21 21 20 18 15 13 10 6 7 5 5 5 6 11 15 13 9 11 13 15 20 23 23 26 28 28 28 30 31 33 33 34 32 31
19 18 19 19 18 19 20 22 21 19 18 16 14 12 9 7 6 6 5 4 4 6 8 10 9 9 12 7 17 23 22 21 22 24 27 29 29 31 30 27 27 27 26
19 20 21 20 20 19 18 18 18 17 15 14 12 10 8 7 6 4 4 4 6 8 8 8 9 10 10 9 19 22 23 24 24 25 27 26 24 26 26 26 24 22 21
19 19 20 20 19 18 17 16 16 15 14 11 10 8 8 8 6 8 8 7 12 10 10 11 12 13 13 15 20 22 23 24 25 26 24 21 21 23 21 20 21 21 18
20 19 18 19 18 16 15 13 12 12 12 10 9 8 6 6 6 5 8 9 11 13 14 14 13 15 18 19 21 22 22 22 21 19 18 20 19 19 20 18 18 14 22

GFSMW_850_spd_078.txt.gz
Wind_Speed
17 22 22 18 20 27 37 39 37 32 27 27 24 23 23 22 23 23 21 21 18 19 19 19 19 18 15 16 18 16 14 12 9 6 3 9 16 17 12 10 10 10 12
22 22 22 23 23 40 33 29 24 24 24 23 23 21 21 20 24 22 23 20 22 20 22 20 19 20 20 20 18 16 10 8 11 6 6 4 7 14 11 10 9 12 14
27 27 25 27 29 30 26 22 19 19 22 20 19 19 18 18 22 21 21 24 22 23 22 21 20 20 21 22 19 17 14 7 9 12 5 3 5 10 5 5 10 13 17
31 31 30 33 35 35 33 27 23 22 20 23 23 24 25 25 22 25 23 23 24 22 23 20 23 22 23 22 19 17 15 18 9 7 9 9 13 9 8 12 13 13 16
33 35 35 35 38 34 37 32 28 27 20 27 25 25 27 26 22 23 26 28 22 25 27 27 26 26 23 19 19 19 21 18 14 12 13 10 12 12 15 20 17 15 15
34 35 35 34 36 35 35 30 33 30 26 24 25 29 28 23 24 26 27 27 23 26 25 28 25 26 24 23 24 25 23 17 15 15 11 14 13 11 16 19 20 18 18
38 39 39 39 39 40 40 37 36 33 31 30 32 27 31 31 28 31 31 27 23 26 28 28 29 28 25 28 29 26 19 14 14 14 13 12 13 14 18 20 21 21 20
33 38 42 44 42 43 43 42 40 36 34 34 34 32 34 32 32 33 32 26 27 28 27 28 32 28 28 31 29 21 14 13 12 13 15 16 16 15 16 19 19 23 23
20 32 33 43 45 44 44 46 42 39 36 35 36 34 34 34 35 34 32 25 25 23 24 28 31 29 31 30 25 17 9 12 17 15 16 17 15 15 18 20 20 21 26
6 14 32 36 41 43 44 45 43 40 37 37 36 37 33 34 35 31 26 24 20 19 25 29 31 32 30 30 28 12 9 16 10 14 15 15 17 18 20 21 22 22 25
6 8 13 21 35 37 38 40 40 38 35 36 36 37 36 32 33 30 27 26 24 23 26 29 31 30 29 24 25 19 21 8 15 17 18 20 21 23 24 24 25 26 26
3 6 7 10 15 27 34 36 38 37 35 34 34 37 33 33 32 34 33 30 27 27 33 31 29 28 20 15 18 20 18 14 12 18 19 20 20 22 23 25 27 28 29
10 10 10 10 14 18 24 30 32 30 30 31 34 37 34 30 33 30 25 28 27 28 29 25 23 21 18 14 17 17 12 12 15 18 20 21 23 24 25 26 28 29 30
12 12 13 12 12 16 20 20 25 25 26 29 34 36 31 30 31 27 26 21 25 25 23 11 13 18 21 13 15 10 13 18 19 17 19 22 25 27 27 28 29 29 30
8 7 10 15 17 14 15 18 19 24 28 32 36 31 29 25 28 26 23 23 22 21 16 9 15 18 16 11 10 16 20 20 19 21 23 23 21 24 27 30 34 35 37
7 4 2 8 17 18 16 20 24 27 31 28 25 23 21 25 25 24 24 19 23 20 11 12 15 13 8 11 18 21 22 22 23 23 22 23 24 27 27 29 32 33 33
5 4 5 7 15 20 23 26 29 28 26 21 18 17 21 23 23 22 21 23 22 16 14 13 12 12 15 17 20 20 20 21 21 22 23 24 25 25 29 31 32 33 33
5 6 7 9 15 20 23 24 24 22 23 18 16 17 21 24 25 23 22 20 18 16 13 10 14 17 14 13 17 20 20 22 23 23 23 26 29 30 30 35 39 42 43
9 10 12 14 18 19 18 18 20 19 16 17 17 20 22 27 24 21 19 17 15 11 14 14 11 10 13 15 17 20 23 25 27 29 30 29 29 30 31 35 38 40 41
12 14 17 18 16 15 15 16 19 19 18 18 20 23 25 25 20 18 18 12 12 12 11 12 15 15 17 19 21 24 26 28 29 27 27 26 27 28 26 27 31 37 38
14 16 18 15 12 14 16 16 18 19 18 21 22 22 19 17 16 13 13 14 13 15 18 20 17 16 17 21 23 23 24 24 24 24 26 27 27 27 27 28 31 35 37
18 18 18 19 19 19 18 20 20 21 23 21 21 21 19 16 15 16 15 14 14 16 16 15 14 13 14 17 18 22 23 22 24 26 27 27 26 27 27 27 28 28 28
18 17 18 19 17 16 17 21 22 23 23 23 20 20 20 16 15 13 12 12 11 11 13 13 11 10 14 12 16 21 23 23 24 24 25 25 25 24 23 23 24 25 27
19 19 21 20 19 18 19 21 22 22 21 20 19 17 16 14 14 13 13 12 13 12 12 10 12 14 15 17 22 22 23 23 23 25 25 24 22 22 26 28 27 24 25
20 20 20 22 20 20 18 17 19 19 20 19 17 17 17 14 14 13 10 9 9 9 11 13 15 16 17 20 19 21 23 23 24 26 25 21 20 29 27 25 22 23 22
20 21 21 21 20 19 17 15 14 16 16 16 15 13 12 10 7 6 6 7 8 10 12 13 14 17 19 19 19 22 22 22 22 22 19 18 22 26 26 24 24 24 24

GFSMW_850_spd_081.txt.gz
Wind_Speed
20 19 24 23 23 27 28 32 34 30 30 36 37 33 32 29 34 35 32 26 21 20 22 22 21 20 20 21 18 18 18 18 16 14 11 8 10 15 14 13 10 10 13
25 28 26 21 26 24 32 29 30 31 32 32 34 30 35 32 29 27 26 25 25 24 25 23 21 20 21 19 20 21 21 20 17 12 9 4 6 11 16 11 12 10 15
31 30 27 25 27 33 36 34 30 30 34 33 32 27 25 24 26 28 29 29 27 25 25 26 24 23 24 23 21 21 21 20 16 14 11 5 5 9 10 11 11 12 15
31 30 29 30 37 39 38 34 29 28 26 27 28 28 29 31 32 30 30 28 27 24 25 27 27 25 26 26 25 21 22 21 20 18 13 10 11 9 7 10 7 9 14
34 35 35 35 38 39 38 32 28 25 23 26 28 29 31 29 28 26 30 30 30 32 29 29 29 26 28 28 26 23 26 26 22 19 14 14 15 13 12 16 16 11 11
38 34 35 37 38 39 35 31 29 27 25 24 30 31 34 32 29 28 29 33 31 26 28 32 33 29 28 29 28 26 27 27 24 20 17 17 16 16 16 17 20 22 23
43 40 37 38 39 41 41 37 35 36 33 31 33 34 36 33 31 29 29 29 30 28 27 32 35 33 32 31 29 30 29 26 25 22 18 16 16 16 17 20 22 25 22
45 46 44 41 43 42 41 40 39 40 40 37 35 36 37 37 34 32 32 30 27 25 25 28 33 33 33 33 34 33 32 28 26 21 19 14 13 17 21 23 21 22 25
43 49 48 46 46 44 44 44 44 42 42 40 37 37 39 40 37 35 34 31 29 28 26 27 31 33 35 35 37 32 27 24 20 15 15 17 17 15 18 20 21 23 26
40 44 48 50 50 48 47 45 43 44 43 42 42 38 40 39 40 41 39 35 31 28 24 26 30 34 35 35 29 21 25 17 13 16 21 16 16 15 16 16 20 22 25
7 17 38 46 51 49 48 48 48 47 46 39 42 39 39 40 39 40 36 34 31 25 24 27 29 32 39 29 31 30 29 21 26 25 19 17 17 19 19 20 22 24 26
16 11 8 9 43 52 51 49 48 49 48 41 44 42 39 38 38 35 36 35 29 24 22 21 26 32 34 30 32 29 21 26 21 21 16 19 20 20 20 20 22 24 25
14 17 13 8 12 31 40 45 47 47 45 42 39 37 42 41 38 30 31 32 30 25 25 22 29 29 34 31 26 21 19 18 18 15 16 18 20 21 23 25 26 27 28
8 15 20 16 13 15 24 31 40 45 42 38 35 35 40 41 30 30 36 34 28 27 22 23 30 31 28 23 22 17 17 15 11 14 18 21 23 24 25 26 25 26 29
18 20 24 21 20 18 19 22 26 31 38 38 32 34 37 34 29 33 30 27 26 28 28 25 26 23 23 23 17 16 15 15 19 23 24 24 25 26 26 25 27 28 30
10 10 11 16 22 23 23 21 24 27 28 28 28 30 31 32 25 25 27 30 30 27 28 24 19 21 20 16 15 16 16 21 24 24 24 25 25 25 25 25 26 28 31
15 12 12 11 23 26 25 26 25 25 27 29 27 27 23 22 23 24 28 28 28 27 26 18 18 19 17 14 14 16 20 22 24 24 23 24 25 26 27 29 31 33 34
11 10 10 12 20 25 25 24 25 26 24 18 15 15 16 17 19 25 26 27 27 26 18 16 15 13 12 15 20 23 22 22 22 22 24 24 26 28 31 34 35 35 36
10 11 11 13 21 22 22 21 20 17 15 14 15 15 15 20 24 26 27 27 25 19 17 14 15 18 21 21 21 21 22 22 22 24 26 27 27 25 27 31 33 34 34
12 13 14 16 17 17 16 16 16 14 14 15 13 15 17 21 23 25 24 22 19 17 17 19 21 20 20 20 21 22 22 23 25 26 24 23 23 25 25 26 29 33 34
12 13 15 16 15 15 15 15 14 15 14 14 14 16 20 25 25 23 20 20 19 19 19 18 19 20 20 20 20 22 24 24 22 22 21 22 23 23 23 22 24 24 27
16 15 17 15 13 13 14 15 16 15 16 17 19 21 21 20 19 19 18 19 20 20 20 19 18 18 19 20 22 22 23 22 21 22 23 24 23 22 22 20 20 21 24
17 16 14 13 11 10 8 15 18 19 18 15 19 23 22 19 18 19 21 20 19 19 19 19 18 17 19 20 20 20 20 21 22 23 24 23 22 21 21 21 24 26 27
17 16 17 17 15 10 13 17 21 19 19 24 23 23 23 22 20 20 19 19 17 16 16 15 15 16 18 20 21 21 22 22 23 23 23 22 20 19 20 25 26 23 21
17 18 20 21 17 17 19 19 19 22 24 24 22 21 19 18 16 15 13 12 12 12 13 14 15 16 18 20 22 22 23 23 22 23 22 20 18 21 25 26 26 24 22
21 22 22 24 24 24 23 22 20 22 24 22 19 16 15 12 7 7 8 9 10 9 11 12 15 16 16 17 18 19 19 19 19 19 18 16 19 22 24 26 27 26 25

GFSMW_850_spd_084.txt.gz
Wind_Speed
15 14 14 15 17 19 18 23 32 32 38 37 39 43 41 38 36 33 30 30 26 23 20 19 21 24 24 23 22 20 19 18 17 15 13 13 12 12 13 14 12 13 13
18 18 15 18 20 21 22 23 27 31 36 35 35 41 37 38 34 34 33 29 27 21 20 24 23 27 27 26 26 25 25 23 22 22 18 12 15 15 17 17 15 14 15
22 23 27 23 19 21 25 27 28 33 32 31 34 35 36 34 36 35 32 31 33 27 24 25 26 27 29 29 28 27 27 25 26 25 19 10 10 12 14 18 18 16 15
22 23 27 25 28 27 27 32 33 32 33 33 37 35 38 36 36 37 34 35 31 28 26 28 30 29 31 29 28 28 27 27 29 28 26 23 16 11 10 15 15 17 18
31 30 30 30 34 34 36 33 32 33 36 36 36 33 36 37 34 36 35 33 31 29 27 30 31 34 32 30 29 30 29 29 31 31 28 25 21 17 17 13 17 18 17
37 35 32 32 37 40 39 37 35 34 35 38 37 37 36 37 37 36 33 34 32 32 33 33 35 34 34 33 30 31 31 31 32 31 29 26 22 20 19 18 20 19 19
45 42 41 41 42 46 44 43 39 37 36 36 36 37 37 35 33 32 33 33 36 38 36 34 36 38 37 34 32 32 34 33 33 28 26 25 24 24 21 20 21 23 22
45 48 47 45 45 47 47 45 43 40 39 38 37 38 37 36 33 33 34 34 34 36 37 36 36 39 38 35 33 36 36 33 32 29 25 26 23 20 16 21 24 23 24
45 49 47 46 47 47 50 50 47 43 41 41 39 38 38 40 39 38 39 37 34 33 32 33 31 33 38 38 37 37 37 36 37 28 27 29 22 21 23 20 20 22 23
44 45 46 47 47 47 47 50 49 48 46 43 41 40 40 39 42 41 42 43 39 36 33 32 30 31 38 39 37 38 39 35 29 27 30 26 23 23 22 20 18 20 22
41 45 46 46 47 48 47 47 48 50 49 47 45 44 43 44 44 47 46 46 43 38 33 34 34 35 36 35 36 41 34 34 33 31 28 25 26 21 16 16 20 22 23
34 36 36 33 44 48 47 48 47 47 48 44 46 46 46 45 45 45 51 50 42 36 35 35 29 29 33 37 35 39 37 35 33 28 26 22 19 17 17 21 22 23 23
26 31 32 33 34 38 44 48 48 46 45 44 45 46 47 47 47 47 47 42 22 36 36 29 21 25 26 33 32 35 36 34 28 25 20 19 17 19 22 22 23 24 27
23 25 24 26 22 24 31 36 42 45 45 45 47 47 44 44 44 47 42 24 36 34 32 27 25 26 28 34 33 39 29 24 21 18 16 18 20 21 23 25 26 28 30
19 21 27 26 22 22 24 25 31 37 41 43 44 44 43 40 40 38 31 30 36 35 29 32 32 26 29 35 37 29 24 21 19 19 20 19 21 24 25 26 28 29 31
5 15 20 27 26 25 24 28 31 32 36 40 40 37 40 39 35 31 32 34 31 33 30 33 28 28 31 30 22 22 20 20 19 20 19 23 25 26 28 30 29 29 31
17 17 18 24 29 27 28 28 29 32 32 32 33 37 39 34 28 24 18 25 29 30 30 29 27 28 27 25 23 20 19 18 19 21 24 25 28 29 29 28 28 30 32
20 17 15 15 21 27 29 29 29 30 29 27 30 28 22 17 19 19 21 22 25 33 32 30 26 22 23 23 20 19 19 20 21 23 24 25 25 26 28 32 33 33 32
14 11 10 10 12 22 26 28 28 28 26 22 18 15 13 14 17 20 22 24 28 29 28 21 22 24 21 19 17 19 20 22 22 22 23 23 26 29 29 30 30 30 30
9 10 11 11 14 18 19 19 18 16 15 14 13 13 14 16 17 19 22 23 24 26 24 22 20 18 18 18 21 20 21 21 21 22 23 25 26 25 23 25 27 29 28
11 11 11 12 14 14 14 14 15 14 13 11 12 12 13 14 16 19 20 24 24 21 20 18 18 18 17 18 18 18 20 21 21 22 21 21 21 22 22 23 24 25 27
13 12 11 11 11 10 10 12 12 12 11 10 11 12 13 15 16 21 24 22 21 19 19 19 21 20 17 16 18 20 22 22 21 19 20 21 21 21 21 22 22 23 26
13 12 10 10 7 5 6 9 10 10 9 11 10 12 15 18 19 19 18 17 16 19 19 16 14 14 15 17 19 20 19 19 19 22 22 23 22 21 20 19 21 23 25
13 12 11 11 11 7 3 5 10 12 13 13 13 15 15 17 15 15 16 16 15 13 12 12 12 12 13 15 16 16 19 24 23 24 23 22 21 19 18 19 21 22 22
14 16 18 18 16 14 14 16 15 13 13 15 17 17 17 16 16 15 14 13 10 6 4 7 11 12 14 16 21 25 24 23 23 22 21 19 19 19 19 20 21 22 22
22 22 23 22 22 22 22 21 18 17 18 20 19 16 16 15 14 10 5 3 1 5 11 13 13 14 17 20 19 18 19 18 17 18 18 18 19 20 21 22 23 23 24

GFSMW_850_spd_087.txt.gz
Wind_Speed
8 9 10 13 13 17 19 20 32 34 38 38 43 41 37 39 40 33 28 26 29 26 21 22 22 22 23 24 19 19 18 17 17 15 15 14 14 13 13 13 13 13 12
10 10 13 15 16 15 17 25 29 33 38 41 42 39 37 41 37 35 31 30 33 29 22 21 23 25 25 22 23 23 23 20 20 21 17 12 18 19 19 19 19 16 16
14 16 18 19 18 18 20 22 27 29 28 35 39 37 40 37 32 38 37 38 32 32 28 24 27 28 25 27 26 27 26 25 25 24 19 10 12 13 21 22 22 21 20
17 17 20 21 23 23 19 17 18 24 28 36 39 39 42 43 40 39 38 37 35 35 30 26 27 27 28 27 27 28 29 29 29 28 30 27 17 11 9 16 19 22 26
23 21 22 25 23 23 19 20 22 23 25 30 32 32 39 39 38 40 39 36 35 34 30 29 28 27 27 28 30 31 32 31 32 32 32 33 32 28 23 17 18 19 20
30 25 22 24 24 22 23 24 25 26 28 30 31 34 37 37 37 39 41 41 38 35 35 34 33 32 32 33 32 35 34 32 34 33 33 34 32 30 27 23 22 20 21
36 32 31 31 30 32 32 32 33 32 33 36 36 41 39 38 40 39 42 43 41 40 41 39 39 37 35 34 34 36 34 34 36 35 35 36 33 32 21 23 23 22 21
38 37 35 33 33 36 35 35 35 33 35 39 41 41 40 38 40 39 39 40 41 42 41 40 39 38 37 37 36 36 36 35 38 40 38 38 37 31 30 30 24 22 23
39 41 39 38 36 37 39 38 37 37 39 40 40 41 39 40 42 40 38 40 41 40 37 35 39 40 39 39 38 40 39 39 39 41 33 38 33 27 31 32 27 26 23
37 40 41 42 42 42 42 42 43 44 44 44 45 44 43 44 44 41 42 42 39 38 38 38 38 42 42 41 40 42 38 42 41 41 34 35 32 27 29 29 30 26 24
37 39 43 45 46 44 46 49 49 49 48 47 47 46 46 45 43 43 44 43 42 43 42 44 45 41 41 40 38 40 40 41 39 44 34 32 33 29 28 27 25 22 20
33 35 37 41 44 46 49 51 52 53 53 51 49 50 47 47 46 46 45 45 47 48 46 43 47 39 39 38 40 41 40 38 38 40 37 34 33 29 26 23 23 22 22
29 30 32 37 40 42 44 47 50 53 54 53 52 52 52 51 51 48 46 46 47 46 46 28 39 40 38 38 38 36 37 36 36 37 36 34 28 27 24 23 23 23 25
27 31 32 33 34 36 37 39 42 45 48 51 50 50 51 51 48 47 48 47 47 40 26 34 36 37 37 32 34 36 39 42 39 38 33 28 26 23 21 23 24 25 27
21 27 32 33 31 33 33 34 33 36 38 42 44 46 47 49 47 46 43 43 44 40 39 34 34 32 39 34 33 33 37 43 40 34 29 23 22 22 24 25 25 27 28
26 25 26 29 30 30 30 30 31 31 33 35 38 39 39 39 40 39 40 40 37 38 39 33 31 34 40 38 34 34 38 35 22 23 22 21 20 22 24 25 26 29 30
25 22 19 24 29 32 31 29 30 31 32 33 34 33 33 33 34 33 29 27 26 30 29 28 31 36 39 39 32 33 30 28 26 22 20 19 22 23 25 26 27 28 28
24 19 19 18 21 26 28 30 30 29 29 28 26 26 28 29 27 23 19 19 23 21 24 29 34 35 30 30 27 24 19 18 18 16 19 21 23 25 25 26 26 28 29
20 19 14 10 10 13 17 21 25 25 23 21 22 21 20 18 14 13 16 19 21 20 24 28 31 24 23 20 21 21 21 18 18 18 21 25 23 23 25 26 27 27 26
14 13 10 8 8 8 12 14 14 15 14 13 12 10 9 9 10 13 15 18 20 20 19 18 18 19 19 18 18 17 14 18 18 19 18 18 20 22 23 23 24 25 26
12 10 8 7 6 7 8 8 8 7 6 6 7 7 8 11 11 12 13 14 15 17 21 22 21 18 17 18 18 18 16 15 16 15 15 17 18 18 19 21 23 25 27
14 11 9 9 8 7 6 6 6 6 7 7 7 9 9 9 9 11 11 12 16 19 18 17 18 19 18 18 16 14 14 12 13 15 15 16 18 18 23 23 23 23 23
13 12 11 12 10 6 4 4 6 6 8 9 8 7 7 6 7 8 12 14 14 13 14 16 17 15 13 11 12 11 11 13 15 16 18 21 23 26 25 21 20 22 24
15 15 14 13 11 9 7 6 8 5 4 5 5 5 6 7 9 10 10 10 11 13 13 11 9 7 6 7 11 13 15 17 20 20 21 24 23 20 19 18 21 22 23
17 16 15 14 13 11 10 9 7 4 5 5 5 6 8 10 12 12 12 12 12 8 3 3 6 9 11 13 13 16 21 21 20 18 18 18 17 16 17 18 20 22 23
20 19 17 16 17 14 13 12 11 8 6 8 10 11 11 12 11 8 6 3 6 10 13 13 10 12 15 19 20 17 15 17 19 18 18 17 17 17 18 20 21 21 21

GFSMW_850_spd_090.txt.gz
Wind_Speed
7 9 10 10 9 10 16 15 24 29 32 35 36 34 33 37 38 39 37 43 31 30 29 28 27 25 27 25 21 17 18 19 18 15 16 15 15 14 14 13 12 13 12
12 12 12 11 10 14 13 11 23 35 32 35 37 38 36 37 34 35 39 40 37 30 29 27 26 27 26 25 23 21 23 21 20 20 18 14 20 20 20 19 19 17 17
16 15 15 16 15 14 13 17 18 32 30 36 41 43 38 33 35 34 32 34 35 32 33 32 27 27 25 25 25 26 25 25 24 23 20 11 15 16 24 25 25 23 21
18 15 19 19 19 18 18 20 24 35 38 38 37 42 43 41 40 39 35 35 33 35 35 30 26 26 26 26 29 30 28 27 28 26 28 30 20 14 10 20 24 24 24
22 19 18 20 18 20 21 22 25 30 31 29 35 42 40 40 40 38 40 40 34 34 34 32 30 27 26 28 31 32 33 33 32 31 31 32 34 31 24 14 16 20 21
26 22 18 18 22 23 22 23 24 28 31 32 34 41 43 41 40 39 43 45 43 40 35 33 34 31 31 29 29 30 32 34 35 34 35 36 37 34 32 28 28 23 18
30 28 26 26 26 24 24 23 25 28 31 34 34 37 37 36 38 37 44 43 43 41 40 39 39 37 33 31 31 33 35 37 38 37 36 37 38 36 34 35 34 30 26
31 32 30 28 29 29 28 26 27 28 29 32 33 33 33 32 35 37 37 40 44 45 42 40 40 39 37 36 37 37 38 38 39 39 37 38 38 40 36 35 33 29 29
28 34 33 31 30 31 33 33 32 30 30 32 31 32 32 34 35 37 38 41 42 43 43 42 43 41 42 42 41 42 41 39 40 38 37 39 40 40 36 36 31 28 27
21 27 34 35 34 33 32 34 35 33 32 33 33 34 35 37 38 38 40 40 42 42 42 43 43 44 45 43 42 43 41 40 39 40 42 43 44 40 33 34 31 28 28
21 21 27 33 35 35 34 35 36 36 37 36 34 35 36 36 36 38 39 39 39 40 43 44 44 45 45 43 42 40 41 39 40 44 45 44 39 37 35 36 33 28 29
18 20 23 27 31 35 37 38 38 38 38 36 35 35 38 38 40 41 40 40 41 42 44 44 45 48 44 46 40 39 30 34 43 44 44 44 41 38 37 38 33 29 29
13 17 19 22 24 28 32 37 39 41 41 38 37 41 41 45 42 42 43 43 44 44 44 45 45 45 43 48 44 35 44 50 50 45 45 41 39 38 42 36 30 29 27
12 15 19 20 23 25 26 28 30 34 39 44 45 43 43 44 44 45 46 47 48 46 46 44 31 41 40 38 40 39 44 47 49 43 41 42 42 38 37 32 30 27 25
10 17 23 23 24 26 26 27 27 28 31 35 41 45 50 50 49 48 47 47 45 43 42 42 43 42 38 33 32 36 39 38 38 39 41 42 36 33 31 28 25 23 22
17 19 25 25 27 28 27 28 29 30 31 31 32 34 39 42 44 45 44 42 41 41 39 37 36 40 39 36 36 33 36 38 38 38 38 36 33 24 20 21 23 23 22
21 27 26 26 25 28 30 32 30 29 30 30 30 30 29 30 31 31 33 33 32 30 28 26 32 32 34 35 33 35 39 41 36 31 30 30 28 26 23 24 20 22 24
29 27 23 21 24 24 23 22 23 24 24 25 26 24 24 24 24 24 23 21 20 20 25 25 26 30 32 32 30 27 25 23 22 21 20 20 19 19 19 21 25 22 23
20 20 19 17 14 12 11 11 12 12 12 14 15 16 14 11 11 12 14 17 18 19 21 24 21 21 20 21 19 18 20 20 19 18 23 21 20 20 21 20 19 20 21
15 19 14 13 9 6 4 3 3 2 4 5 5 5 4 5 5 7 8 11 12 15 14 13 14 14 15 15 16 17 18 21 20 18 17 16 17 17 15 15 17 18 20
20 20 16 12 9 7 4 5 7 10 10 9 7 6 6 5 4 6 7 9 10 11 11 13 13 14 15 17 18 16 15 14 13 12 11 10 9 11 15 18 18 18 20
17 16 16 15 13 10 7 11 11 10 7 6 5 3 1 1 3 5 6 7 7 9 11 14 13 12 11 10 10 10 8 8 6 5 8 10 11 13 13 16 19 18 20
19 17 16 17 16 13 8 11 11 7 5 4 5 4 3 3 2 2 3 5 8 10 11 12 10 8 5 3 2 5 8 11 13 14 14 14 18 21 20 17 16 17 18
19 16 16 17 17 14 14 14 12 9 7 5 7 5 3 4 5 5 6 6 6 5 5 4 3 3 4 8 11 13 14 15 15 18 19 21 21 18 16 17 19 20 20
18 15 13 19 19 17 17 16 13 10 10 12 11 10 9 9 8 8 9 8 10 7 4 3 4 6 9 10 11 14 17 19 17 17 16 15 14 14 15 16 17 19 20
19 15 15 19 21 18 17 15 13 10 10 13 14 13 11 11 10 9 7 5 4 6 7 7 7 8 9 10 11 11 12 14 15 15 15 16 15 15 15 16 17 18 19

GFSMW_850_spd_093.txt.gz
Wind_Speed
12 10 11 11 9 11 8 12 14 13 16 25 37 40 37 37 34 32 36 34 34 37 38 34 31 30 30 26 24 23 20 20 19 18 18 18 18 17 17 16 15 15 14
14 12 12 13 11 10 12 12 11 19 20 24 30 33 34 39 34 34 35 36 37 34 31 29 30 29 28 24 24 25 24 23 21 21 20 16 21 24 23 22 21 19 18
18 16 16 15 16 13 13 13 10 22 24 30 34 36 34 34 35 33 37 38 39 39 34 33 28 26 26 26 28 27 25 25 24 26 18 11 12 16 26 29 26 24 24
22 18 16 17 19 16 15 13 11 21 30 29 30 38 41 40 36 36 39 40 39 40 37 27 26 30 27 31 29 29 29 28 28 29 30 29 19 11 8 17 24 29 30
26 23 19 16 19 19 18 17 17 22 32 30 32 41 40 39 35 36 39 39 36 37 34 37 34 30 32 33 33 32 31 31 33 33 35 34 34 32 26 19 18 19 21
27 24 20 18 21 22 22 22 22 24 34 36 34 38 43 39 38 37 39 42 41 42 38 37 36 36 34 31 31 30 30 33 36 37 38 39 37 36 33 28 32 27 29
27 29 28 25 24 27 26 25 27 28 30 34 32 35 36 43 44 42 40 40 37 40 38 38 37 38 36 35 32 30 31 32 33 37 40 40 43 42 38 31 33 33 33
26 32 32 29 25 26 27 28 29 31 35 36 35 35 36 42 44 42 41 43 42 42 46 40 37 37 37 36 36 35 35 36 37 39 40 41 44 44 42 39 38 31 31
25 33 35 34 28 27 28 28 28 29 31 32 34 37 37 44 45 44 42 42 43 43 50 46 44 40 38 39 39 40 41 42 43 45 43 43 46 44 45 42 40 34 26
20 27 34 36 33 28 27 26 25 26 27 29 33 34 36 38 41 40 40 40 42 43 45 46 45 45 44 43 43 44 44 46 46 46 45 43 44 44 45 44 41 29 34
20 22 30 34 34 31 28 28 29 27 29 30 31 33 34 34 34 34 35 36 37 38 39 40 41 42 43 43 43 44 46 47 47 47 46 41 37 42 44 48 39 38 37
15 16 21 29 33 34 32 32 32 33 33 32 32 33 32 32 33 34 33 33 35 36 35 35 36 38 40 42 43 45 51 55 54 52 39 32 43 46 47 49 39 40 40
12 15 17 22 26 31 31 32 34 35 35 35 34 34 35 35 35 36 35 35 35 34 34 36 38 40 43 44 41 44 38 44 47 43 35 45 44 52 51 48 44 43 46
9 13 17 19 22 23 23 23 26 30 34 36 37 38 38 39 39 39 38 36 36 37 38 39 39 40 42 39 41 41 42 40 40 41 44 42 49 55 59 44 45 46 44
14 12 18 18 20 21 20 19 20 22 24 30 35 39 38 39 39 38 35 34 34 35 35 36 39 37 36 36 40 45 50 39 38 40 42 42 41 43 44 43 46 42 36
22 18 17 19 20 20 20 20 22 23 23 23 25 27 30 34 37 36 36 35 34 34 34 32 30 31 31 31 28 34 37 36 39 37 40 42 40 37 36 34 32 30 26
28 21 22 23 24 24 22 22 23 20 19 20 19 20 20 20 22 23 24 24 23 21 22 22 25 25 28 32 33 30 32 34 33 36 37 34 32 26 23 23 25 26 28
29 32 28 23 22 22 22 20 19 18 17 17 16 15 14 15 15 14 15 15 16 17 19 24 28 27 27 27 26 26 24 24 25 25 23 23 24 23 24 22 20 19 18
23 19 20 21 20 17 14 11 10 10 10 10 11 10 10 10 10 11 12 13 15 18 20 19 15 18 20 19 22 20 17 19 20 17 17 16 17 17 19 18 14 14 14
11 14 14 18 17 16 15 14 13 11 10 9 8 8 8 9 10 11 11 11 10 8 8 10 11 10 12 13 13 10 12 14 15 15 13 9 8 8 9 11 9 9 10
13 20 23 24 24 21 19 20 20 19 16 14 12 10 10 9 8 6 4 1 3 4 4 6 6 6 7 6 10 9 9 8 6 5 4 6 9 13 16 17 16 15 14
19 22 27 28 25 21 19 26 25 20 17 16 16 14 11 9 8 5 4 2 2 3 5 6 7 6 4 4 4 4 4 3 6 8 10 14 17 19 19 18 16 17 19
23 26 32 34 31 28 20 25 25 19 15 15 15 13 11 9 7 5 6 6 6 5 7 6 7 7 7 7 6 6 7 9 11 13 15 17 17 17 15 16 16 15 16
24 25 27 32 31 27 24 25 21 19 14 13 14 14 11 13 12 12 10 10 11 10 10 8 7 6 6 7 9 10 12 14 15 15 15 15 15 14 12 13 15 16 17
25 24 25 28 30 26 25 20 17 16 18 19 18 17 15 16 15 15 16 14 14 10 8 7 6 6 7 8 9 11 11 12 12 13 14 14 14 11 11 13 15 17 18
25 27 29 29 28 25 23 20 19 17 18 20 20 18 16 15 15 14 14 12 11 9 8 7 5 6 4 3 6 8 9 11 13 12 10 10 11 10 10 10 11 14 14

GFSMW_850_spd_096.txt.gz
Wind_Speed
10 10 8 7 10 10 9 11 6 7 8 10 27 35 44 49 45 52 46 38 44 47 45 41 37 34 31 28 28 24 23 19 18 13 12 14 19 18 18 18 18 18 18
13 12 10 8 14 12 11 11 9 10 16 11 24 36 37 37 38 39 35 31 41 45 44 42 38 34 27 28 29 27 21 22 22 19 11 10 14 23 24 22 21 20 19
16 16 14 11 15 15 13 15 13 14 17 18 26 29 29 30 33 33 34 34 34 42 44 40 34 32 30 29 27 26 23 23 23 25 12 9 12 11 18 26 25 25 26
16 17 17 14 15 18 13 14 14 15 20 23 28 30 32 35 36 33 34 38 38 34 34 37 34 30 30 28 25 24 24 24 25 28 31 22 11 10 8 14 22 27 29
19 19 18 15 14 18 18 17 14 16 22 25 26 30 34 39 37 34 35 39 37 41 38 29 27 26 26 23 23 24 32 29 25 23 24 29 29 29 26 19 13 19 26
19 19 18 17 16 17 17 18 18 17 22 24 24 27 35 42 38 39 33 36 39 40 44 43 37 32 28 30 29 29 33 33 35 31 29 26 24 24 25 34 37 26 31
21 22 23 21 20 20 20 20 20 20 24 27 26 29 31 37 40 36 33 31 39 40 41 40 39 37 40 37 36 33 34 35 35 35 37 38 39 39 32 36 41 42 44
21 25 25 23 22 22 22 21 22 24 25 28 26 28 26 35 33 29 30 38 39 40 41 42 40 43 38 39 36 34 33 34 35 34 35 36 39 40 40 44 47 34 38
20 25 26 24 23 23 24 24 23 24 26 28 31 31 27 35 35 27 29 33 31 33 39 37 36 34 36 35 35 33 31 30 35 37 40 41 43 45 46 48 47 45 35
20 25 27 27 24 23 23 24 24 25 25 27 30 33 31 32 29 30 31 32 29 28 26 28 31 32 34 34 32 32 32 31 34 34 37 39 47 48 48 50 50 49 46
19 23 26 26 25 24 25 27 28 27 27 27 28 29 29 30 33 33 36 37 37 34 32 32 31 32 35 35 36 37 38 36 40 41 46 48 51 52 52 44 53 51 43
15 18 22 25 27 27 27 28 31 32 30 28 28 29 28 30 32 36 35 36 37 37 37 35 33 33 34 37 38 44 48 47 46 47 51 54 52 49 58 59 48 51 57
10 15 20 24 27 28 27 28 28 31 29 28 29 29 30 31 32 34 36 31 32 31 29 30 31 31 32 33 37 43 42 42 49 47 48 42 42 44 48 47 47 49 50
9 13 17 21 23 26 27 27 27 27 28 29 29 29 29 29 28 29 30 31 30 30 31 32 32 31 30 29 30 35 39 42 42 43 42 44 40 39 40 45 48 48 50
9 11 16 20 21 22 23 25 24 26 28 29 29 28 28 27 27 27 28 28 28 29 28 26 27 27 28 31 34 36 35 34 33 35 37 36 38 39 41 41 45 44 44
15 12 13 17 20 22 22 23 23 23 24 25 24 23 23 24 25 25 25 26 27 28 28 27 26 29 29 27 24 25 30 32 33 32 33 34 34 34 35 35 37 37 35
19 16 15 16 17 19 20 20 21 21 21 20 19 19 19 20 21 20 20 21 23 21 21 21 22 25 26 26 27 28 28 26 27 28 30 29 28 28 28 27 28 28 27
15 16 20 17 17 15 17 17 18 18 18 16 15 14 14 13 12 13 14 16 20 20 23 23 23 24 24 23 23 22 21 20 20 21 22 22 22 20 17 16 17 16 16
11 9 11 13 19 16 17 16 17 16 18 19 17 15 15 15 15 15 16 17 17 17 16 15 14 13 11 13 15 16 14 14 14 14 13 12 10 9 9 8 8 9 12
2 3 9 12 14 16 19 21 23 23 21 18 17 16 14 13 13 13 12 11 9 9 8 6 3 2 3 6 7 7 7 6 5 3 3 3 6 9 11 13 14 15 16
5 9 13 17 21 21 25 28 28 28 26 24 22 20 18 16 14 13 11 9 8 7 5 4 4 3 5 6 3 3 3 4 5 6 7 9 11 13 16 17 17 17 17
18 20 24 27 27 26 29 33 32 30 28 25 24 23 21 18 14 10 9 8 6 6 7 7 8 7 9 9 9 8 7 6 7 9 11 14 16 18 18 17 16 16 14
30 30 34 33 31 33 30 33 33 29 28 26 23 21 18 16 14 12 12 11 9 9 10 8 9 9 8 6 5 6 8 10 11 12 13 15 15 15 13 15 14 13 12
28 28 29 31 34 31 31 33 30 28 26 26 23 22 20 20 18 16 14 14 13 12 11 10 9 7 6 6 7 9 11 12 13 14 14 14 14 15 14 14 14 14 12
28 32 34 34 33 30 30 28 26 25 28 28 26 24 22 21 19 19 18 15 14 11 9 8 6 5 6 6 8 10 11 12 13 12 11 11 11 11 11 12 12 10 11
29 31 31 33 32 30 29 28 27 26 26 27 25 24 23 21 19 18 17 14 11 8 6 5 5 5 3 3 7 10 12 13 12 10 11 11 12 12 12 12 12 12 14

GFSMW_850_spd_102.txt.gz
Wind_Speed
15 22 20 18 17 14 15 15 16 16 14 13 11 14 22 31 34 41 44 45 45 45 44 43 37 32 33 33 25 27 26 21 20 18 17 15 14 15 17 18 21 21 20
22 23 23 18 19 13 14 16 17 14 13 9 11 14 17 27 40 41 45 49 49 47 50 47 40 37 28 26 29 28 27 21 21 18 20 13 15 23 22 20 21 23 23
21 25 25 21 21 16 18 19 18 15 10 10 7 11 12 17 32 42 49 55 55 51 52 49 41 39 37 31 33 31 30 25 24 22 15 11 10 10 13 17 22 24 26
15 27 26 23 22 18 20 18 21 16 13 9 7 4 14 20 31 42 44 54 55 52 51 47 39 43 37 34 33 32 27 26 27 28 26 14 9 8 5 12 14 17 24
25 30 28 24 21 20 20 19 18 18 16 13 12 13 22 26 29 33 48 51 50 53 51 47 42 42 33 34 34 27 33 25 23 23 22 23 21 19 16 8 14 16 18
22 26 25 23 22 22 19 22 21 19 18 18 17 20 14 25 28 31 37 41 47 47 50 45 44 36 34 33 31 30 28 31 27 22 19 21 20 21 21 26 30 28 30
19 23 27 27 25 26 24 22 22 21 20 23 22 22 21 21 23 24 28 35 39 42 46 44 42 39 40 29 33 32 28 29 26 22 23 24 27 25 24 23 29 29 30
18 24 29 29 27 28 26 25 25 21 22 27 26 22 22 21 20 24 26 30 34 39 45 48 47 40 32 33 37 31 29 26 27 26 32 37 31 29 31 32 33 35 36
24 24 28 29 28 26 24 25 24 22 22 28 26 26 25 23 23 26 27 34 37 40 41 44 44 36 36 37 33 28 26 26 29 33 34 34 36 34 33 34 34 35 31
23 24 27 30 28 25 24 24 23 20 24 26 27 25 25 21 22 28 28 29 32 37 33 40 40 39 39 35 40 36 36 36 38 39 39 42 42 42 38 38 39 39 43
24 25 27 31 28 27 28 24 24 25 22 30 28 25 23 22 21 29 31 26 26 29 34 38 40 41 40 41 43 44 41 39 39 41 41 38 38 37 38 40 41 43 47
1 23 26 32 31 30 30 29 29 28 25 26 31 28 27 24 23 21 28 30 29 29 30 30 34 39 38 42 42 39 38 35 34 36 35 37 36 36 38 40 45 48 48
5 9 27 31 32 31 31 29 31 31 29 27 25 29 31 29 27 28 26 27 29 26 27 27 25 25 29 33 35 36 37 36 35 35 34 35 36 37 38 41 44 51 50
13 10 16 27 30 30 31 29 29 30 29 27 29 29 30 32 30 28 32 31 28 28 30 30 29 31 30 30 32 33 33 32 32 32 34 35 37 41 42 43 37 24 28
14 14 17 22 28 29 29 28 28 31 30 30 28 27 25 26 27 27 26 27 29 29 29 29 27 26 26 29 31 28 26 28 28 29 31 33 35 42 31 30 29 28 28
24 25 8 19 24 29 31 29 29 28 33 30 30 28 27 26 27 26 25 25 24 25 23 23 26 28 29 31 28 27 28 31 33 35 31 28 28 23 30 28 26 22 23
29 32 13 13 23 26 29 30 30 27 24 31 28 27 27 27 26 25 24 23 23 27 28 28 27 27 28 30 30 29 32 36 31 24 19 15 15 13 11 14 17 18 17
25 26 14 10 9 24 26 26 28 27 25 23 26 25 25 24 22 25 30 28 28 28 28 27 27 28 28 28 27 25 23 23 14 7 2 2 6 8 10 12 13 12 13
9 1 4 7 7 8 20 22 25 25 25 23 22 22 24 31 32 30 29 29 30 28 25 22 20 16 13 12 14 9 5 4 4 4 5 6 8 9 10 11 13 15 15
17 11 4 5 8 8 15 19 22 24 28 32 35 36 35 33 31 29 27 26 25 25 21 19 14 12 11 10 10 8 6 5 6 6 6 8 9 10 12 13 14 14 14
12 9 5 10 13 16 19 30 32 37 33 30 31 31 30 29 25 25 24 24 24 24 22 20 20 17 15 14 12 10 8 8 7 7 8 10 11 13 12 14 16 15 13
10 3 4 5 9 12 18 25 27 27 29 29 29 30 29 28 25 23 24 24 24 26 26 24 22 18 16 13 11 8 8 9 9 11 11 12 13 14 16 17 18 15 14
8 7 6 6 8 11 14 23 26 28 31 31 29 28 30 30 31 31 29 29 25 23 23 20 18 16 13 12 11 11 11 11 11 12 12 12 12 12 12 13 12 13 14
3 5 7 8 10 14 20 22 28 31 33 32 37 38 39 38 37 38 30 27 23 20 18 17 16 14 12 11 11 11 11 11 10 9 8 9 8 7 8 10 11 14 15
6 8 11 16 20 22 27 29 31 35 40 40 39 37 35 33 31 33 28 24 21 15 16 16 14 11 11 12 11 11 11 10 8 7 7 11 12 11 11 12 13 14 16
17 21 21 23 25 26 28 30 31 34 38 39 37 36 34 34 30 30 31 23 19 15 13 15 12 12 12 9 9 10 11 9 6 7 11 13 14 14 14 14 15 16 18

GFSMW_850_spd_105.txt.gz
Wind_Speed
30 36 32 29 26 21 16 12 17 19 20 19 21 22 24 27 29 43 40 47 44 47 43 40 39 42 40 38 39 33 31 26 25 21 20 18 18 19 19 17 15 14 15
31 37 33 29 24 16 13 14 19 20 20 20 20 22 27 29 34 40 46 49 49 47 46 44 43 41 41 40 39 38 32 28 26 25 24 20 18 19 20 23 22 19 19
32 38 35 30 23 18 14 17 20 19 19 18 18 18 22 26 35 40 50 54 48 47 51 47 45 43 43 42 39 37 34 31 29 24 21 13 11 22 24 25 25 25 26
34 42 38 31 24 19 14 18 21 19 18 17 16 13 15 20 29 46 46 51 53 52 52 45 43 42 44 41 37 31 30 30 32 25 25 18 10 11 10 19 22 25 26
39 44 39 31 22 19 16 19 22 20 18 17 13 13 11 14 18 31 39 50 51 53 58 50 46 43 40 40 34 33 30 30 30 29 29 26 17 14 10 8 13 17 19
44 44 38 28 23 20 16 20 22 21 20 18 17 14 13 17 14 29 36 36 53 54 56 55 50 48 40 37 34 33 34 34 24 25 25 31 28 24 21 20 19 21 23
40 41 37 31 26 23 18 22 23 21 20 20 19 18 10 19 15 26 38 42 49 55 60 58 53 47 39 39 36 33 33 26 25 30 27 29 26 22 19 21 25 27 26
43 41 37 33 27 24 21 23 25 22 22 22 20 21 16 12 17 29 40 44 44 52 52 56 54 45 40 41 38 34 31 29 29 30 33 29 26 28 34 34 30 31 33
42 41 37 33 27 25 23 24 25 24 23 24 24 20 22 19 18 20 21 28 35 38 49 52 44 44 45 42 34 33 33 37 29 30 31 31 30 29 30 33 33 32 34
39 41 38 34 28 23 23 24 26 25 23 25 28 25 23 20 18 19 21 23 28 33 36 40 43 42 42 39 36 35 32 32 39 31 29 30 34 36 36 35 40 41 43
36 42 38 35 32 25 24 25 25 26 23 26 28 27 25 23 22 23 23 25 28 33 38 42 42 43 40 38 33 31 32 37 33 32 31 36 35 37 41 40 36 39 40
6 38 40 38 36 31 27 27 26 25 23 26 29 27 25 24 23 24 24 26 25 25 27 32 34 36 35 36 34 35 38 38 38 41 40 38 37 38 35 34 37 39 40
13 20 39 41 38 34 29 28 27 27 24 26 30 28 27 27 25 23 26 26 26 26 27 29 31 32 35 37 38 38 37 37 38 38 36 37 37 37 36 36 38 39 39
18 18 24 41 40 36 32 28 28 30 27 25 30 31 30 28 25 23 24 31 28 25 24 24 25 25 27 32 35 36 35 33 32 34 37 38 38 39 40 41 42 39 32
23 17 12 11 40 38 35 29 28 33 31 29 28 30 29 30 26 25 24 25 27 25 24 23 22 22 24 26 25 26 27 30 33 36 37 37 37 39 37 39 33 21 21
23 21 11 10 16 39 38 33 31 33 35 33 29 27 27 32 32 28 27 28 24 24 27 29 31 30 31 33 32 31 32 34 34 33 28 24 27 28 17 9 7 12 7
28 28 14 16 24 36 40 37 34 31 35 34 32 29 26 27 30 28 25 26 32 32 31 31 32 33 33 34 32 31 29 26 25 25 23 18 12 3 3 4 10 10 10
28 27 26 14 20 24 36 39 34 32 34 37 32 29 28 27 26 30 33 32 33 33 32 31 31 31 30 27 25 25 26 29 25 17 10 5 4 3 4 7 7 7 8
25 26 23 14 2 19 33 24 34 32 32 34 36 34 31 35 37 35 34 33 33 31 28 25 23 20 20 20 23 22 20 16 13 10 7 4 3 2 5 6 8 8 9
25 25 22 18 8 16 18 26 30 29 34 34 38 38 40 39 37 37 36 34 30 29 26 25 21 18 17 16 16 14 14 13 11 8 5 4 4 3 4 6 8 8 10
24 20 18 17 12 7 26 36 35 36 34 34 36 37 37 37 33 33 33 32 31 29 27 25 23 22 20 19 15 13 11 9 8 9 9 8 8 7 8 9 11 11 11
18 19 16 14 12 6 7 26 31 30 30 31 33 35 37 37 34 33 32 32 32 33 32 29 28 25 22 18 15 12 10 11 9 11 10 10 8 9 10 11 9 8 11
13 12 12 12 12 7 3 14 21 24 27 27 30 34 37 39 38 40 39 38 38 36 35 32 28 26 21 17 14 12 10 10 9 9 8 6 4 5 8 9 10 12 14
10 9 6 4 4 2 6 10 18 24 28 32 34 36 38 39 39 39 38 37 35 33 31 28 27 24 21 16 14 12 9 6 7 6 5 4 3 4 5 8 12 14 15
6 4 1 4 6 9 13 16 20 26 34 37 39 41 43 42 42 40 34 34 29 26 26 25 23 20 20 16 11 8 7 4 5 4 5 5 6 8 11 12 13 14 15
9 12 12 9 10 12 16 20 24 28 33 37 40 42 43 43 41 42 39 31 29 26 24 22 16 16 15 14 11 10 8 6 4 4 9 10 10 11 12 13 14 16 18

GFSMW_850_spd_108.txt.gz
Wind_Speed
34 32 39 37 32 27 25 20 18 17 19 19 19 18 17 24 34 37 45 45 46 47 45 47 49 49 46 45 43 39 34 30 26 26 23 17 15 15 14 13 12 12 12
20 29 42 39 34 30 25 22 19 19 20 20 20 22 22 23 32 40 44 45 46 47 45 45 48 50 48 46 44 41 38 34 30 30 27 22 17 18 17 17 17 17 16
25 36 44 42 36 31 27 23 21 21 21 21 22 24 25 27 30 37 44 48 51 48 48 44 48 50 50 51 47 43 40 40 33 29 24 15 11 22 21 23 22 21 21
26 36 47 43 37 33 27 22 22 22 21 22 25 25 28 33 32 35 44 52 49 51 50 49 47 51 52 50 49 46 43 42 37 34 28 21 12 12 12 25 26 24 25
22 38 51 48 41 33 28 24 24 23 22 23 22 22 24 27 35 39 38 53 54 54 54 53 52 51 49 49 49 49 45 40 40 37 37 25 17 15 12 10 16 20 23
24 38 45 48 40 33 28 25 25 24 24 22 22 21 19 17 25 27 46 34 58 59 57 56 52 50 50 48 46 44 45 43 36 37 35 27 21 21 17 17 13 16 17
27 36 44 47 40 36 31 28 26 25 25 22 21 19 14 14 15 17 29 44 40 55 58 52 51 50 48 46 48 47 41 30 33 36 32 22 27 26 26 24 23 22 28
27 44 49 50 43 37 33 30 27 25 25 24 23 18 15 10 14 13 24 29 42 53 54 53 49 50 47 45 44 43 38 37 35 34 27 23 25 30 29 29 27 31 33
24 42 46 45 42 38 34 30 27 25 23 24 25 24 18 12 9 12 24 23 34 38 46 55 47 47 44 43 43 41 36 33 31 32 29 27 29 28 29 27 29 31 30
12 23 42 45 41 36 32 29 26 24 23 24 26 24 23 17 12 10 17 21 28 39 48 53 54 46 44 44 40 35 33 32 34 32 31 31 30 32 31 29 33 35 37
25 20 27 43 38 33 31 28 27 26 24 26 27 26 25 23 18 14 13 16 25 34 39 43 49 54 48 33 41 43 40 35 34 34 34 35 33 30 30 33 35 36 38
26 11 22 23 38 33 32 29 28 28 24 24 27 30 26 26 23 20 18 18 18 22 26 36 32 34 39 38 38 36 35 33 33 33 32 32 33 33 37 37 36 38 39
27 22 17 27 34 35 33 30 29 30 25 23 27 29 30 28 26 23 23 22 21 22 23 25 29 30 34 34 35 33 33 31 29 29 31 35 36 39 39 37 38 39 40
30 15 9 19 30 29 34 31 30 30 27 26 28 29 29 28 26 23 24 23 23 22 21 22 24 28 31 32 34 32 33 31 31 35 36 38 41 39 38 39 41 38 35
13 19 9 16 23 27 30 31 30 30 29 28 29 29 28 27 25 23 24 24 24 21 18 19 20 23 27 30 32 32 34 36 36 39 36 35 37 38 40 40 34 26 23
18 19 1 8 18 17 27 31 30 31 31 30 28 30 29 29 27 24 22 23 24 23 21 23 25 27 29 27 27 27 30 31 31 31 32 33 34 30 20 12 10 8 6
19 23 24 12 12 11 13 30 32 31 32 32 29 28 28 26 29 25 22 23 27 31 29 29 30 29 29 27 25 24 26 28 30 29 30 24 16 9 4 3 3 5 9
22 23 25 25 14 16 20 24 27 30 31 33 32 28 27 28 28 29 31 29 29 29 30 31 30 30 29 28 27 27 27 27 26 20 16 12 9 6 3 2 6 7 6
20 22 21 21 23 3 17 13 22 23 27 30 31 28 26 31 34 36 34 34 34 32 32 31 31 29 28 27 27 27 28 24 19 14 12 10 8 7 2 5 6 4 5
18 21 22 18 15 3 18 22 24 17 32 34 33 33 34 32 33 34 35 35 33 33 32 30 26 27 26 22 22 25 24 23 20 17 13 8 5 6 6 3 3 4 6
16 17 19 17 14 8 6 24 24 26 34 34 32 33 33 34 33 33 35 35 34 34 32 31 27 25 23 24 23 22 21 21 19 13 9 6 5 3 4 3 3 6 7
17 15 16 16 12 8 1 12 19 23 25 29 33 33 33 36 37 37 36 36 36 35 33 33 32 29 28 26 23 21 17 15 13 12 10 7 2 4 3 5 8 6 8
17 15 14 12 9 6 4 9 16 18 21 26 29 33 35 37 37 37 38 38 39 38 39 38 37 34 31 27 21 19 17 13 11 13 9 6 6 7 7 9 8 8 9
15 12 8 7 6 4 4 9 13 15 18 23 28 32 36 38 39 41 40 42 42 42 41 37 38 35 28 24 20 18 15 12 11 13 14 9 4 5 8 8 9 11 12
9 8 5 6 7 7 9 10 12 18 25 29 31 34 36 37 38 37 37 38 33 32 33 33 26 27 26 18 14 13 16 15 14 11 9 8 6 7 8 9 11 11 12
3 1 5 6 7 8 11 13 15 19 27 30 32 35 36 36 37 38 37 31 32 30 27 27 22 21 20 20 17 16 15 14 12 10 10 9 8 9 10 10 10 11 13

GFSMW_850_spd_111.txt.gz
Wind_Speed
45 35 33 26 37 41 38 33 26 22 19 20 22 19 17 14 13 11 28 34 46 39 40 38 39 41 46 47 46 45 46 38 32 28 20 17 17 15 13 11 8 6 6
38 31 33 31 34 42 39 33 26 22 20 20 22 20 17 17 18 20 31 38 40 42 45 42 43 44 46 46 48 48 48 39 35 31 28 22 19 21 18 15 12 10 10
31 30 30 31 38 45 42 34 27 22 21 23 23 21 19 20 23 25 37 38 40 37 41 43 44 45 48 49 49 50 51 46 37 33 23 14 10 21 20 20 17 14 14
17 20 25 31 39 47 39 32 26 23 23 27 26 23 25 25 30 31 33 40 40 42 42 42 44 47 50 51 51 49 49 46 42 37 33 24 15 12 11 19 19 17 15
17 20 23 29 41 46 41 34 27 25 27 30 28 26 27 26 27 30 36 43 42 44 45 45 46 48 52 53 52 52 49 44 42 40 38 27 15 16 13 10 16 16 11
25 25 27 29 39 46 40 34 29 27 30 29 29 28 28 29 30 28 35 42 45 47 48 49 50 46 50 54 53 53 48 43 42 40 36 35 27 17 12 9 9 12 11
36 26 31 33 39 49 43 36 31 31 31 31 29 26 24 25 28 34 37 35 44 44 54 55 52 50 49 52 52 51 48 43 42 41 38 33 29 19 14 13 17 16 20
40 43 29 36 41 49 46 39 33 33 32 30 28 25 23 21 20 25 32 36 45 39 54 58 55 53 52 51 49 47 49 47 44 43 40 34 32 26 19 23 22 30 32
38 42 21 34 39 49 47 42 35 33 31 30 26 25 21 18 17 18 20 21 30 38 38 56 53 54 52 49 47 46 46 46 45 41 37 36 32 23 21 24 28 24 26
48 41 19 23 33 44 45 40 33 30 30 28 25 24 22 18 13 12 13 21 22 28 37 49 53 54 50 49 45 45 40 40 40 31 26 27 34 34 30 28 29 28 29
44 41 33 22 28 37 40 37 33 30 28 27 25 25 23 20 14 11 9 14 23 27 38 45 43 51 45 45 43 39 41 39 31 25 24 28 31 31 30 30 29 28 31
46 41 43 22 23 26 31 32 33 30 28 25 25 25 23 23 17 13 9 7 12 18 23 34 39 41 46 41 42 40 40 25 25 30 27 27 28 30 31 32 36 34 37
42 40 34 17 17 22 29 29 32 32 29 26 26 26 25 24 21 16 12 12 10 14 21 30 35 38 41 44 38 32 32 33 28 26 26 30 30 31 34 35 34 38 38
41 26 14 6 10 15 26 30 32 33 32 27 26 28 29 24 22 19 15 15 15 15 17 18 24 28 36 28 32 29 25 24 23 25 27 28 29 33 34 36 38 38 37
20 27 16 6 8 13 21 26 29 32 32 29 26 27 29 26 23 20 17 17 16 15 15 16 18 22 24 26 25 23 23 24 26 28 29 30 33 33 35 35 34 30 23
22 20 22 14 9 6 17 20 27 29 30 29 25 25 27 25 23 21 19 20 19 17 17 19 20 21 23 23 24 23 26 28 28 30 32 34 35 34 32 29 20 14 11
17 21 25 24 13 17 14 17 20 27 26 28 25 22 24 24 23 22 20 21 22 22 21 19 19 20 19 20 21 22 24 28 30 32 32 28 22 21 17 9 7 6 3
13 15 19 19 17 14 17 22 22 29 25 24 24 24 20 21 22 23 24 24 24 24 23 22 21 21 20 19 19 21 24 26 29 27 26 24 20 13 11 8 4 1 2
12 13 17 18 18 14 10 19 24 25 22 9 17 23 22 24 24 26 26 25 24 24 25 24 23 22 23 23 22 23 26 28 28 24 21 19 16 14 8 4 1 2 4
12 15 15 16 16 9 3 14 24 27 25 15 10 18 26 27 27 26 27 25 24 25 25 26 26 26 25 25 27 27 28 29 27 23 21 17 14 11 3 3 3 2 4
12 12 13 16 16 12 2 12 24 26 25 23 20 16 24 26 27 27 28 26 27 27 26 26 23 23 22 25 29 31 30 29 29 25 22 16 10 8 6 6 5 4 5
16 13 12 12 14 12 4 6 15 18 19 21 25 20 23 25 28 30 32 32 33 33 33 32 29 25 23 22 23 23 24 25 23 21 17 12 8 9 7 7 6 6 5
14 13 11 9 8 8 5 5 10 12 16 21 21 22 25 27 28 31 32 34 35 35 36 34 33 33 31 29 26 23 21 18 18 14 12 10 8 8 8 10 8 7 6
15 12 8 6 5 4 3 1 8 12 16 21 25 30 31 33 33 34 35 34 32 34 31 37 40 38 36 32 26 20 16 14 12 13 13 12 10 7 9 9 8 8 10
8 9 7 5 4 4 3 4 4 8 17 22 24 27 30 31 32 32 33 34 33 35 38 31 30 27 29 23 20 17 14 15 12 13 11 11 11 10 9 10 11 11 12
7 7 8 7 4 2 3 6 7 10 15 19 23 25 28 28 29 30 30 22 24 27 28 29 26 25 20 19 16 18 16 14 12 13 12 11 11 10 11 10 11 12 12

GFSMW_850_spd_114.txt.gz
Wind_Speed
34 40 35 35 23 27 20 27 36 35 32 29 24 23 24 25 25 22 21 19 26 46 51 53 48 53 45 42 46 47 42 36 31 29 26 20 18 16 12 11 9 8 6
40 38 33 24 21 23 21 26 34 36 33 27 23 23 23 22 20 17 16 15 20 34 53 51 50 52 45 42 46 50 46 39 33 32 28 22 19 19 17 16 13 10 9
35 34 30 25 21 23 24 29 37 35 32 24 23 22 20 19 19 16 15 20 26 31 37 42 43 47 45 42 45 49 49 45 37 35 23 15 10 22 21 21 18 15 13
26 28 31 30 24 23 23 31 35 35 29 25 26 25 26 26 24 22 18 23 28 35 30 34 34 39 39 41 45 49 49 48 43 36 30 21 14 16 13 23 20 17 16
23 26 29 28 27 23 24 30 37 33 28 28 28 25 25 23 23 22 24 25 28 32 34 33 35 34 38 39 44 49 51 49 47 44 37 23 17 16 14 13 19 19 15
25 25 30 23 20 25 22 31 39 34 29 30 29 26 25 25 23 26 28 31 32 33 33 37 36 37 36 40 44 48 50 49 49 44 38 34 28 21 19 14 12 12 10
29 37 29 32 22 25 25 33 41 36 32 31 30 28 26 24 25 25 27 30 35 36 36 41 41 44 41 41 44 49 50 49 50 45 40 35 32 23 17 14 13 13 10
30 33 35 34 26 23 26 33 42 37 33 32 29 28 27 27 28 28 27 30 34 39 40 44 42 43 43 41 45 47 48 47 46 41 42 39 33 27 26 26 16 12 17
34 30 34 36 32 26 26 32 42 39 33 32 28 27 26 25 25 26 29 33 34 36 44 44 44 47 46 45 43 46 49 46 45 42 41 42 39 32 31 22 20 17 20
35 29 33 42 38 27 23 26 38 37 31 31 27 28 26 24 21 19 19 23 28 33 39 43 44 54 52 52 50 47 49 48 49 46 46 43 41 43 39 29 25 22 22
35 31 36 44 41 22 22 24 35 33 27 28 25 28 26 23 19 16 15 20 22 22 23 33 46 52 59 54 51 45 45 51 50 48 48 41 43 36 27 28 32 31 26
26 32 39 45 29 20 21 24 33 30 27 26 23 26 25 23 20 15 11 11 14 14 13 23 29 41 49 53 52 46 47 41 38 41 35 37 28 25 29 29 27 28 28
24 33 41 40 21 18 20 23 27 28 26 23 23 23 24 24 21 17 12 9 8 15 14 14 30 35 30 39 43 46 34 38 37 36 34 28 22 21 25 25 26 29 31
23 26 35 37 23 18 19 22 25 24 25 23 24 23 23 24 23 18 14 10 8 11 12 18 20 28 34 37 37 30 32 39 37 26 23 26 22 23 24 25 27 27 30
19 28 32 38 31 17 16 17 18 21 25 24 23 22 22 23 21 20 16 13 11 9 9 13 21 24 30 35 37 28 27 27 25 24 21 22 22 22 24 24 26 29 27
15 14 24 31 29 22 14 15 13 18 22 24 23 22 21 23 21 20 17 15 14 12 11 14 14 18 23 21 20 19 22 23 21 20 22 23 23 24 26 27 28 27 21
9 14 17 22 27 25 16 9 14 14 19 22 22 23 22 22 23 21 17 15 17 16 15 14 14 16 15 18 19 17 17 19 19 19 21 22 22 23 21 17 15 12 11
12 16 22 21 20 24 13 12 12 20 19 21 22 21 20 20 21 20 19 17 18 18 16 15 14 14 15 15 16 16 18 19 22 23 23 21 18 13 12 11 11 10 8
13 15 18 21 20 20 13 12 11 20 13 20 23 21 18 19 24 22 21 19 20 18 18 17 16 15 15 15 16 18 21 22 22 21 19 18 16 15 13 11 9 7 5
14 15 16 17 17 17 11 8 15 14 16 19 21 21 22 18 20 21 22 21 20 18 17 17 18 18 16 17 17 20 23 25 25 24 21 19 17 18 12 7 7 6 6
15 16 14 14 15 17 11 4 16 21 21 21 21 21 23 20 19 18 21 22 22 20 20 20 19 18 18 19 23 24 24 26 28 27 24 21 17 13 13 10 6 5 5
17 17 15 15 16 14 10 1 10 15 17 22 21 26 25 19 19 23 25 26 25 25 24 24 21 18 17 17 21 27 28 29 27 27 25 19 16 14 11 10 10 10 8
17 17 16 15 13 11 8 4 3 8 18 17 19 23 23 22 18 27 31 32 32 33 31 29 28 25 20 18 17 20 23 22 25 22 18 17 13 11 10 8 9 10 8
16 15 15 14 13 11 8 6 0 5 12 20 24 26 26 22 17 22 26 28 30 31 33 32 31 29 29 29 27 27 24 21 18 19 19 16 13 12 13 13 12 11 10
13 14 14 13 12 10 8 5 3 2 9 16 21 24 26 27 29 26 24 27 28 30 34 33 32 35 36 31 25 23 20 19 18 17 17 18 17 16 14 13 11 12 11
9 10 10 10 9 9 7 5 3 3 9 14 17 19 23 25 26 27 29 21 20 20 23 29 30 30 28 28 23 21 18 14 15 17 17 17 16 14 13 12 11 11 10

GFSMW_850_spd_117.txt.gz
Wind_Speed
20 23 25 25 25 25 23 25 25 28 30 37 38 34 33 28 26 27 27 29 30 33 42 47 45 49 51 48 46 47 44 38 34 30 26 24 20 19 17 13 13 13 12
18 22 27 27 27 23 23 20 21 26 29 37 37 33 27 26 24 26 26 26 28 31 35 47 56 51 53 50 47 49 47 40 38 31 24 15 18 22 20 18 16 14 13
16 23 29 27 26 24 20 16 19 24 31 36 33 29 24 21 22 24 24 24 24 22 28 42 53 48 49 52 46 52 52 47 40 37 20 14 11 21 24 22 20 19 17
18 23 27 27 27 23 21 16 17 22 33 35 32 28 24 23 26 24 22 17 20 19 23 38 51 42 49 50 47 50 53 49 45 38 28 24 19 17 13 25 22 19 17
17 23 30 27 28 21 18 15 15 23 35 35 30 26 21 20 22 20 20 17 20 21 19 32 37 44 47 50 46 49 52 50 47 45 39 25 20 21 16 15 27 24 21
21 27 26 29 29 22 16 14 16 25 34 34 31 26 22 22 23 20 22 20 22 26 27 27 34 42 47 48 44 46 50 51 47 44 42 38 30 25 21 17 21 23 21
24 28 25 29 32 27 16 15 18 26 34 34 31 25 22 22 22 20 24 22 25 26 32 28 28 25 37 44 42 43 47 50 49 47 45 40 32 25 22 18 20 22 14
23 26 24 26 29 29 21 14 20 26 32 34 30 25 23 24 22 23 23 28 24 31 25 31 33 34 31 31 34 40 44 46 48 46 45 41 37 30 25 23 25 13 20
22 25 27 24 32 30 23 15 19 26 30 33 29 26 25 24 25 24 22 24 27 26 28 31 34 41 44 42 40 38 42 45 47 46 44 41 38 34 28 28 24 22 22
19 21 24 26 30 29 19 12 15 23 28 32 28 26 25 24 24 23 25 28 26 27 30 32 33 40 44 49 52 45 42 44 46 46 44 42 39 35 33 34 27 24 22
18 20 22 29 33 27 23 14 13 21 27 30 28 25 23 23 22 22 21 21 25 28 33 32 34 39 44 46 48 45 44 47 47 45 43 39 35 36 36 36 29 34 35
15 18 19 29 36 37 25 24 15 21 29 29 28 26 24 23 22 21 20 18 20 22 23 27 32 39 40 51 47 44 47 45 49 49 47 50 47 44 43 48 43 40 32
10 15 24 28 28 39 34 23 20 19 28 27 27 25 24 24 22 20 17 13 11 15 17 12 14 22 29 40 48 47 54 50 51 49 51 47 45 48 48 40 30 32 32
10 13 20 28 25 35 33 17 20 23 27 27 25 23 24 24 22 20 16 10 8 9 10 10 12 19 26 42 45 47 51 44 41 43 42 44 44 47 35 30 29 30 26
12 11 16 24 30 33 32 18 13 22 24 25 28 22 20 23 23 22 16 12 9 6 6 6 6 10 17 26 27 34 40 34 35 33 35 38 35 31 28 29 29 25 24
7 9 12 19 30 31 30 23 7 22 19 25 28 22 20 21 23 22 19 14 11 8 8 7 6 6 11 22 28 33 33 26 36 40 34 27 29 25 25 23 21 20 20
7 11 13 18 25 28 29 26 13 10 18 23 28 25 21 22 23 21 20 17 14 12 11 10 9 8 13 14 19 28 29 27 27 27 26 24 24 22 21 21 21 21 20
12 15 17 21 20 22 23 27 15 7 21 23 26 27 23 23 25 23 24 19 18 16 14 14 12 11 11 11 15 17 16 20 20 22 21 19 17 16 16 15 16 14 14
12 14 17 20 20 20 20 23 14 6 16 21 25 27 27 26 28 27 25 21 20 19 18 17 15 15 15 15 13 16 18 22 24 22 19 16 16 15 13 13 13 16 15
13 16 18 18 18 18 19 18 12 9 14 17 22 24 28 29 29 28 26 24 22 21 21 20 18 15 15 16 17 18 19 22 23 23 21 18 17 21 19 14 13 12 13
15 16 17 17 17 17 17 15 5 8 19 23 23 26 27 26 30 30 28 26 25 22 25 22 20 17 16 17 18 21 21 24 27 27 25 23 22 20 18 15 16 15 13
15 16 16 16 15 14 16 14 8 5 10 23 28 29 31 26 29 29 29 29 28 27 27 24 23 21 20 19 23 24 28 31 32 31 29 27 25 23 21 16 14 11 10
15 16 15 14 13 12 13 13 11 5 2 11 23 29 31 30 31 33 34 36 34 32 33 31 29 27 23 20 17 22 25 25 25 28 28 27 23 23 21 14 12 14 13
14 16 15 14 13 11 11 12 11 8 2 13 15 20 26 28 32 34 36 38 39 37 35 34 33 31 27 26 27 30 30 30 31 29 25 22 21 16 17 19 17 14 13
14 14 15 15 14 13 11 10 10 7 4 10 16 23 24 29 30 27 27 28 29 31 35 34 33 34 34 30 28 28 30 28 25 26 25 23 21 22 22 20 17 15 13
15 14 14 14 14 14 11 8 7 6 3 10 16 21 28 26 26 29 29 19 17 17 18 23 26 32 33 34 32 28 24 23 22 23 24 26 24 22 21 19 17 15 13

GFSMW_850_spd_120.txt.gz
Wind_Speed
9 9 10 11 13 15 15 19 25 27 24 27 33 40 43 40 38 35 28 30 30 29 31 36 37 43 47 49 47 43 36 31 31 29 23 18 17 16 14 14 15 15 15
7 9 12 15 15 18 16 14 15 18 22 26 34 36 38 37 35 31 27 28 29 28 30 37 37 47 51 55 51 49 39 34 34 33 27 19 15 15 16 15 16 17 15
5 9 14 15 15 17 16 13 11 16 19 22 27 27 33 34 32 30 27 28 27 28 33 36 40 45 55 56 55 53 45 37 36 33 32 24 16 23 19 18 17 18 16
5 8 13 15 16 18 16 9 9 14 17 24 28 31 32 35 32 26 25 26 27 28 31 35 37 47 59 55 58 54 48 41 40 32 29 24 20 28 18 19 20 19 19
5 9 12 14 15 19 19 10 8 12 16 25 25 26 23 19 19 22 19 24 25 24 24 29 30 39 53 51 52 56 47 45 42 39 32 25 21 24 18 23 24 20 20
7 10 13 14 16 17 19 16 9 11 17 24 27 23 20 18 16 18 19 23 21 17 18 14 26 36 52 49 53 54 50 42 40 37 36 30 26 25 20 16 23 24 21
8 13 16 18 18 20 18 18 13 12 18 26 31 26 22 18 18 17 19 19 20 17 20 19 21 38 44 48 49 54 50 47 41 44 38 29 26 21 22 17 19 21 15
9 13 16 17 18 20 21 17 14 14 18 22 30 31 26 21 18 18 18 20 22 20 20 22 23 35 41 39 49 50 46 48 46 42 37 34 27 23 22 19 20 17 13
11 13 14 15 19 21 21 18 11 13 18 20 29 32 27 20 18 18 19 18 18 20 22 25 28 23 29 32 43 45 46 46 46 44 43 36 28 26 25 26 22 25 19
12 13 13 14 18 21 21 12 11 14 17 21 28 33 28 22 21 21 21 21 19 20 22 29 28 30 28 30 41 42 42 43 44 44 41 38 36 38 36 31 26 30 28
12 11 11 15 18 18 18 18 12 16 15 21 25 30 26 22 22 26 23 22 21 20 21 27 26 34 34 37 43 44 39 42 44 45 43 41 46 41 39 33 30 30 28
12 10 10 13 17 17 18 19 16 16 17 19 21 27 24 21 21 24 23 23 20 20 23 27 27 29 31 35 44 45 45 45 41 44 46 46 45 40 40 36 33 34 31
13 12 12 12 13 14 18 23 20 17 21 20 22 27 25 21 21 21 22 20 17 19 21 24 25 27 28 33 41 46 49 54 53 44 46 49 47 42 40 40 40 38 40
14 12 12 13 13 16 22 26 24 19 21 23 25 28 24 22 21 20 20 17 14 12 14 17 17 17 18 20 35 52 56 53 53 57 47 49 45 35 48 45 44 43 43
15 11 10 13 15 16 21 28 27 22 14 25 27 28 24 23 21 22 20 17 13 10 12 12 12 11 10 11 24 46 47 43 47 48 43 44 48 35 44 45 46 38 38
10 10 10 13 15 19 21 21 34 31 12 28 29 25 23 24 23 24 21 18 15 11 11 9 8 9 5 8 18 33 41 40 41 45 43 40 39 41 36 37 38 38 32
9 10 13 14 17 18 20 19 31 30 16 21 27 29 22 22 24 26 24 21 17 14 13 12 8 7 6 3 17 20 27 35 33 34 36 34 34 35 37 35 30 26 26
7 9 12 15 16 17 18 19 18 29 23 19 27 32 26 23 23 27 27 23 19 17 15 14 12 10 9 6 8 17 24 30 30 33 34 31 29 26 28 27 27 22 19
7 10 13 16 17 19 20 21 14 24 24 19 28 34 30 27 29 31 29 25 22 20 18 17 15 13 14 11 11 24 28 26 29 29 25 24 21 21 20 20 19 19 19
10 13 15 15 17 19 19 19 17 14 15 11 27 32 32 31 34 31 31 28 24 22 20 20 18 17 17 18 20 21 27 29 28 25 24 21 21 21 18 14 17 20 21
13 14 14 15 18 19 18 17 16 14 12 12 24 33 34 34 31 32 31 29 27 27 25 24 23 20 21 22 23 23 22 23 29 29 26 24 23 24 24 21 20 20 20
14 16 15 16 17 18 17 17 16 14 13 11 17 34 35 33 31 34 34 32 30 32 31 29 28 26 26 26 26 27 27 29 28 32 31 31 30 29 27 23 20 19 18
15 15 16 16 17 18 17 16 16 13 9 7 8 28 33 30 31 36 37 38 36 34 35 34 32 30 27 28 30 31 31 32 33 33 34 34 30 28 24 21 20 20 18
14 14 15 17 18 17 17 14 12 10 7 3 7 16 26 34 36 39 41 40 40 40 39 36 35 33 31 29 28 29 30 31 33 36 34 32 28 26 24 23 21 20 18
14 14 16 16 17 17 16 14 11 9 6 3 4 14 17 24 32 38 40 42 40 40 40 37 36 35 34 32 32 32 31 29 31 33 32 31 28 26 26 25 23 20 18
14 14 15 14 15 15 14 12 10 8 7 7 10 11 18 21 24 27 28 21 22 20 20 22 26 28 28 31 33 33 33 33 32 33 32 29 27 26 26 23 21 19 18

GFSMW_850_spd_123.txt.gz
Wind_Speed
17 16 10 10 10 12 14 18 20 24 26 26 27 31 33 37 34 39 35 31 32 30 32 32 34 35 39 39 39 43 36 32 31 29 28 24 23 22 20 20 18 17 17
12 11 7 8 9 10 12 15 18 18 21 25 26 28 35 41 37 37 36 34 31 31 27 33 36 35 33 37 39 39 43 37 35 38 35 23 21 22 22 22 21 19 18
10 7 7 6 6 7 9 11 13 15 18 21 23 30 33 35 35 39 38 35 34 29 26 28 33 40 37 46 40 42 50 42 40 39 40 25 19 27 24 22 22 22 20
8 5 4 5 6 8 10 9 9 12 16 19 23 30 33 34 34 36 36 33 29 25 27 27 31 37 40 40 42 45 50 44 41 39 38 27 27 31 22 22 25 20 21
5 2 3 5 6 9 10 10 7 9 13 16 22 23 30 24 19 22 25 34 28 25 25 28 32 35 43 36 54 48 54 50 44 46 38 34 23 32 24 27 26 25 21
5 1 3 6 7 10 12 11 10 8 15 15 26 23 31 21 24 22 26 22 24 27 29 29 31 32 37 37 55 47 59 59 45 44 40 37 27 34 25 26 27 28 24
3 1 4 7 9 10 12 12 11 9 10 14 19 27 26 25 22 22 19 20 26 28 29 28 26 24 26 37 47 49 63 58 47 44 40 32 32 28 25 25 28 28 25
2 1 4 7 10 11 13 13 12 10 10 11 17 27 25 23 20 19 20 20 22 22 21 21 22 15 16 26 45 52 57 62 50 47 40 32 33 27 27 22 28 26 22
3 3 5 7 9 13 15 15 11 9 13 14 14 27 28 23 21 17 21 19 20 19 20 19 19 17 14 24 43 50 58 54 57 49 39 36 31 31 24 25 21 30 22
3 5 6 7 11 14 15 14 13 11 11 13 15 20 25 29 19 18 21 21 18 18 17 19 18 18 17 21 38 45 45 56 50 44 42 37 33 33 26 27 23 26 25
7 9 9 9 10 12 14 15 15 15 13 11 14 18 23 26 25 21 20 21 18 19 19 18 16 18 21 23 32 42 43 47 47 41 40 41 35 32 33 34 33 30 24
11 13 11 11 10 12 14 16 17 17 17 14 12 19 23 27 29 27 23 19 19 19 20 17 17 23 20 28 29 33 46 53 44 44 41 42 39 36 41 39 33 30 24
14 15 14 13 12 11 14 14 15 19 19 16 13 17 23 26 28 26 23 24 23 19 16 19 22 22 25 27 34 33 43 49 51 45 42 42 40 41 41 37 36 28 31
15 16 15 14 12 10 13 15 16 20 23 16 13 15 22 27 28 25 23 24 22 22 20 21 20 20 19 22 28 34 40 46 50 44 43 42 44 47 46 39 36 32 28
16 16 12 10 12 13 16 17 19 18 20 20 17 15 21 26 27 25 24 25 22 20 19 20 19 20 22 23 23 24 35 48 51 46 43 42 42 43 42 34 40 33 40
18 13 9 13 15 15 16 18 20 20 18 22 18 21 20 28 26 25 25 22 21 19 16 17 19 19 19 21 23 16 33 46 49 52 49 48 43 42 39 39 39 36 36
10 11 12 13 14 15 16 17 20 21 19 19 21 22 23 27 26 26 26 25 23 19 17 17 15 15 14 13 15 13 15 39 45 49 49 48 50 50 49 48 41 38 32
8 10 11 14 14 15 16 20 20 19 19 19 25 20 24 26 25 28 29 28 24 21 19 17 13 12 12 9 10 13 16 24 32 32 37 43 41 36 37 44 39 31 27
9 11 13 15 15 16 18 19 19 19 19 17 25 18 22 27 25 31 32 29 26 23 21 19 16 13 12 9 8 16 19 21 26 26 31 33 34 31 29 29 30 28 25
10 12 13 13 14 18 18 18 20 20 17 15 22 20 23 28 29 34 32 30 27 25 22 20 18 16 15 13 10 13 21 27 27 26 26 28 28 26 23 22 26 26 24
12 13 12 12 15 18 18 16 19 21 17 16 14 18 25 28 36 34 31 32 31 29 26 24 23 21 20 19 19 22 22 27 31 31 31 29 26 26 25 20 21 19 25
13 14 13 14 15 17 18 17 18 19 17 12 12 18 21 33 38 36 34 35 34 33 30 29 27 26 26 27 27 28 29 30 31 35 34 31 27 26 25 24 23 24 22
14 15 14 14 15 18 19 19 19 18 15 13 9 13 19 36 41 37 37 40 38 37 34 32 31 31 29 31 33 34 34 35 35 34 33 34 31 32 30 26 25 25 23
16 16 16 16 17 18 18 17 17 15 12 10 8 7 12 26 37 39 39 41 42 40 38 37 35 33 32 32 33 33 35 35 36 39 39 37 33 29 30 30 26 22 20
16 15 16 16 17 19 18 16 14 13 10 7 3 2 5 16 26 35 37 41 40 39 40 38 38 37 34 31 32 34 36 36 35 36 36 34 32 30 28 25 23 22 21
16 17 16 16 16 17 18 16 13 11 8 4 6 10 7 13 17 27 27 24 29 36 39 40 38 36 34 32 28 29 31 35 37 37 37 34 30 27 26 25 23 21 19

GFSMW_850_spd_126.txt.gz
Wind_Speed
17 20 16 17 10 10 12 17 23 25 28 26 28 32 32 34 34 33 38 28 31 31 33 34 33 31 31 29 35 26 30 30 26 27 29 26 27 22 25 23 19 19 15
17 23 20 12 6 8 10 16 18 21 25 26 31 32 32 31 37 34 28 37 29 29 29 35 35 32 33 33 30 36 34 36 33 32 33 26 27 26 26 25 23 24 19
20 16 13 5 6 8 10 11 15 18 21 23 23 27 29 32 34 34 30 31 39 35 32 33 32 33 35 36 34 36 40 41 41 33 40 22 16 32 27 29 28 24 23
8 12 9 7 6 9 5 11 10 11 14 20 23 29 35 36 39 37 31 31 35 30 30 29 30 32 36 38 40 37 36 41 47 39 43 32 33 35 25 28 32 24 25
13 8 6 3 4 4 8 7 11 6 11 15 24 22 32 34 37 33 32 34 34 36 34 30 28 31 35 32 36 36 40 40 51 46 46 38 27 37 32 30 36 22 28
13 7 6 4 3 2 4 6 11 13 14 21 21 19 28 25 27 24 27 30 33 29 29 26 27 29 31 34 38 38 45 46 52 48 49 44 35 39 32 33 36 30 28
13 7 6 3 2 4 8 10 7 12 18 17 13 24 24 22 25 24 25 24 23 30 30 28 31 31 31 32 34 41 50 50 49 58 49 47 37 35 35 37 37 37 27
11 8 5 1 2 4 8 11 12 7 12 16 13 17 26 24 30 22 27 26 26 26 28 30 31 32 31 32 32 42 46 47 53 60 51 49 45 35 35 37 37 34 32
9 8 3 3 2 6 10 11 12 10 8 17 14 15 22 29 29 23 22 21 22 20 21 26 32 30 28 25 24 30 37 50 58 61 56 50 46 30 36 35 38 41 30
7 4 2 2 3 6 9 15 14 12 13 11 15 14 20 31 29 26 23 20 24 21 22 20 24 24 24 20 19 27 37 49 44 55 55 54 30 42 35 31 31 39 40
6 0 2 5 6 6 9 12 14 17 16 17 16 16 17 26 31 26 23 22 22 24 21 20 21 21 19 21 19 30 36 41 46 54 58 55 43 31 33 31 23 34 39
2 3 6 7 8 9 9 8 11 14 20 19 18 18 19 19 29 32 26 25 24 24 23 21 19 19 18 23 22 28 34 39 46 55 47 54 49 39 34 30 30 31 38
5 7 9 12 7 9 4 7 15 17 20 23 20 17 19 21 26 30 29 24 25 23 24 22 22 20 21 20 22 26 27 41 42 47 59 59 47 43 36 36 33 33 32
8 9 12 11 5 8 9 13 17 25 22 23 21 15 19 21 24 26 30 33 27 24 22 21 21 23 23 20 20 27 29 32 39 49 45 48 48 43 40 38 37 35 34
12 12 15 8 10 11 12 16 20 24 28 22 20 17 19 19 21 25 29 30 26 24 25 22 19 18 18 23 25 25 29 34 38 50 54 47 46 42 42 44 43 46 41
13 11 11 12 13 16 18 19 23 27 25 25 20 20 16 18 19 22 29 26 24 24 25 27 26 27 26 25 23 23 26 30 35 47 53 46 48 44 43 46 47 38 41
13 8 8 9 11 15 16 22 26 25 25 24 20 20 17 17 21 22 29 26 26 25 26 25 23 23 23 24 27 26 26 27 37 45 48 54 48 48 44 46 42 38 40
15 13 12 12 12 14 20 25 23 24 24 24 23 18 18 15 20 23 27 29 28 28 25 23 24 23 21 20 22 25 27 21 27 39 45 52 53 51 51 46 41 41 44
15 14 14 12 11 14 20 22 22 23 24 24 25 21 20 15 23 22 38 33 31 28 24 22 20 16 17 18 16 18 21 17 19 28 35 46 51 48 48 50 48 41 35
14 15 15 13 14 18 21 23 22 24 25 26 25 23 20 16 25 20 38 34 30 30 27 25 21 18 17 16 14 15 18 19 21 24 27 28 30 34 33 29 33 33 27
17 17 17 17 18 21 24 23 22 23 25 25 25 21 20 20 17 20 37 37 33 33 30 27 24 21 19 18 16 17 19 21 26 27 27 29 29 29 27 23 26 28 31
19 18 18 17 17 20 24 24 23 24 23 22 21 19 18 19 20 23 37 38 36 36 32 30 27 25 21 20 19 19 23 23 27 29 29 28 28 26 26 26 29 33 31
18 18 17 16 16 20 22 25 24 24 21 19 18 17 15 16 19 28 41 38 39 39 36 33 30 28 26 25 26 27 28 31 30 31 32 32 30 29 30 31 33 31 28
18 19 18 17 18 19 21 23 23 20 17 16 14 12 12 13 16 28 28 38 40 43 40 37 35 33 31 30 31 32 34 35 37 37 37 35 34 33 34 34 31 29 27
18 18 18 18 19 20 21 21 20 17 14 11 9 6 4 6 9 20 26 33 43 43 41 40 37 37 36 34 34 36 38 38 39 41 42 40 38 38 36 34 30 26 23
18 19 19 19 20 20 20 20 19 16 13 9 6 2 3 8 9 14 18 14 32 39 40 40 39 36 35 37 37 36 36 38 40 40 40 38 35 35 33 30 28 26 25

GFSMW_850_spd_129.txt.gz
Wind_Speed
14 22 23 26 22 22 19 16 15 12 13 17 29 29 30 31 30 28 35 27 32 34 33 33 33 35 34 27 28 31 31 25 26 29 29 35 25 28 27 23 18 15 19
15 18 20 28 21 18 17 10 11 13 11 13 18 23 29 34 33 31 29 36 32 33 36 35 36 37 33 29 29 31 35 29 30 32 29 27 27 27 27 23 20 17 17
24 15 21 23 19 15 12 12 17 22 22 22 21 24 27 30 32 35 31 29 37 35 33 35 36 35 36 31 29 32 37 32 38 32 38 23 18 33 33 26 26 23 20
15 21 17 12 13 10 5 9 12 18 19 18 21 27 28 33 36 37 29 26 28 39 35 34 34 37 38 34 32 30 37 35 40 41 41 34 32 41 29 32 29 26 25
11 17 22 21 14 10 6 3 10 8 15 16 15 24 29 27 35 36 34 28 26 30 39 36 36 36 35 34 32 32 37 40 42 47 47 41 29 41 36 34 35 27 28
14 23 22 16 16 9 5 5 8 8 11 13 17 21 24 24 27 30 30 32 30 34 36 36 33 33 33 34 31 35 37 40 44 47 50 52 46 46 40 34 38 39 33
30 22 22 19 12 8 7 6 9 11 8 12 17 17 25 20 23 28 26 28 31 35 39 40 37 35 34 31 33 33 35 44 43 48 53 54 42 43 46 43 44 40 35
26 25 20 16 14 9 4 4 9 7 6 9 15 20 14 22 23 24 25 26 25 27 33 36 35 33 30 30 30 29 32 38 46 41 49 56 51 43 46 46 44 35 34
21 21 17 13 11 6 2 2 10 11 12 13 13 16 14 17 23 26 28 29 26 22 21 33 33 30 30 31 30 32 32 40 42 48 55 56 58 43 43 41 47 45 30
16 18 17 15 12 7 5 6 11 14 15 16 14 19 19 16 19 28 25 30 24 25 24 24 30 32 33 33 32 32 34 39 44 41 51 57 57 54 41 43 41 45 46
12 12 8 7 5 4 6 4 7 12 14 17 20 18 18 18 19 20 28 30 25 26 26 25 24 26 33 33 33 31 30 32 33 35 40 49 56 60 37 43 44 44 44
15 10 5 5 12 10 8 2 4 10 14 18 22 23 20 18 19 21 28 24 27 28 29 26 25 23 26 26 28 31 26 27 28 37 41 53 56 57 51 36 49 45 45
8 5 8 11 21 13 9 8 10 13 19 22 24 23 22 18 20 21 25 28 26 29 28 28 24 22 23 25 26 27 26 26 27 30 39 43 52 54 51 34 41 45 49
9 14 20 17 12 9 8 7 12 18 23 24 24 22 22 21 21 22 25 26 28 31 30 27 26 23 24 25 24 26 25 25 26 30 38 42 46 48 51 48 29 40 40
26 21 20 15 12 10 10 15 18 23 26 26 26 24 20 24 22 23 22 24 26 31 34 28 24 21 21 25 27 24 24 26 26 32 39 40 47 55 57 52 38 31 35
30 28 27 23 18 14 15 20 25 26 29 30 26 25 22 22 24 22 18 22 29 31 27 25 23 24 28 23 23 25 27 25 26 31 39 42 45 52 56 56 49 36 31
23 21 22 22 19 19 21 25 30 29 27 29 26 27 26 22 24 22 19 23 28 33 31 27 29 28 25 23 22 23 24 25 26 28 36 43 49 47 57 52 51 43 44
23 21 21 22 23 24 25 27 26 26 27 28 27 26 26 24 23 23 21 17 30 35 29 29 29 28 29 26 27 26 28 28 29 30 34 40 39 55 54 51 49 47 40
18 20 20 22 25 27 26 26 26 26 27 29 29 27 27 26 22 23 25 16 32 34 30 28 29 28 27 26 28 25 27 29 29 29 32 37 43 43 51 49 45 51 51
18 18 18 17 22 25 28 28 25 24 26 28 29 29 27 27 23 23 22 21 34 39 32 30 27 25 26 24 24 24 24 27 28 25 24 27 36 47 48 48 51 45 47
15 15 13 13 16 23 26 27 26 25 25 27 27 30 28 26 23 25 23 20 28 41 36 32 29 26 24 22 22 22 22 23 22 19 18 20 29 36 39 44 41 41 37
17 17 15 14 15 20 24 27 27 27 26 26 25 26 25 24 22 23 22 22 27 43 43 36 32 29 26 23 22 22 21 22 21 21 23 24 27 27 29 28 24 25 26
19 20 20 21 21 24 25 28 28 27 26 25 24 24 24 22 19 20 21 25 34 40 41 38 36 32 28 27 25 24 24 24 24 26 26 26 26 26 26 22 24 29 31
19 21 23 24 25 26 26 25 26 25 24 23 22 21 22 22 19 17 20 25 32 39 40 41 39 36 33 30 29 28 29 30 30 30 29 28 28 28 28 32 35 33 32
20 23 25 26 26 25 25 25 23 22 21 19 19 17 16 16 15 13 15 22 29 34 30 40 42 41 36 33 32 32 33 34 33 34 33 34 35 39 39 38 35 33 30
20 24 26 25 24 23 23 27 23 20 19 17 16 14 12 9 6 3 4 12 21 32 27 31 40 39 37 38 36 35 34 36 38 39 43 44 44 43 40 37 35 32 30

GFSMW_850_spd_132.txt.gz
Wind_Speed
30 33 36 34 37 32 28 26 22 26 30 30 29 29 30 28 26 26 21 26 27 31 32 35 33 31 30 31 27 30 32 32 28 24 24 31 25 32 32 24 22 19 17
32 31 32 26 34 29 27 25 23 21 18 24 25 28 29 31 30 28 26 25 28 30 35 36 37 36 33 33 29 29 33 34 33 32 24 19 26 31 34 30 27 23 18
28 17 18 23 28 29 28 26 21 18 17 17 17 18 23 27 29 32 32 31 28 35 32 34 36 37 36 33 31 32 34 34 35 35 25 14 17 27 36 34 30 25 22
21 11 12 16 20 19 18 16 14 10 10 12 15 16 22 25 25 25 29 30 31 32 38 36 36 37 38 36 33 33 32 31 37 36 41 28 21 28 20 37 34 28 26
18 22 27 29 21 17 13 9 5 4 5 6 4 7 13 22 24 25 28 27 26 27 31 37 37 36 37 35 34 37 38 33 37 40 43 40 27 29 27 30 39 33 31
22 24 27 26 21 16 13 6 4 9 11 6 2 6 9 18 21 24 27 29 28 28 30 30 35 37 38 38 39 36 36 37 37 39 41 46 46 35 39 32 42 42 39
27 34 36 31 24 17 12 9 3 2 8 7 7 7 9 11 18 22 24 25 26 30 33 33 35 39 42 39 38 36 37 33 38 40 42 46 47 40 42 35 38 42 36
27 43 35 30 26 17 10 9 9 5 2 6 7 9 12 11 10 19 20 22 26 27 29 34 37 37 39 37 35 35 36 32 39 39 47 47 49 50 41 46 44 36 33
35 37 32 32 25 16 12 9 9 10 7 8 8 10 14 13 13 16 18 25 26 26 26 27 34 39 41 39 36 36 32 34 36 36 39 48 46 54 55 46 48 45 32
26 31 31 27 20 16 13 9 8 10 8 10 10 14 16 13 13 16 18 22 25 27 28 26 26 33 37 36 33 31 32 32 34 36 38 44 41 51 57 55 52 46 42
21 25 12 24 19 14 12 12 14 8 3 8 13 14 18 18 13 15 19 19 24 24 27 25 24 25 31 32 32 34 35 36 37 37 35 47 41 55 59 55 53 50 44
15 25 16 19 24 19 15 13 9 4 5 10 15 17 18 18 16 15 19 18 19 20 27 29 25 26 26 28 32 35 35 38 37 39 40 43 41 40 52 55 54 49 44
13 11 14 23 20 19 17 13 9 9 14 15 16 18 19 20 18 15 18 22 20 21 23 30 28 29 27 29 30 37 36 36 37 32 34 33 33 35 47 55 54 51 49
13 17 18 17 17 18 14 12 13 17 18 20 20 20 21 21 22 18 18 21 24 21 24 28 34 30 26 26 25 29 30 32 30 31 29 29 30 41 50 50 48 49 51
22 23 21 16 18 18 17 18 20 23 25 27 26 24 23 22 23 22 20 19 23 22 23 32 31 34 30 27 25 27 30 29 30 29 27 27 28 29 41 57 57 37 44
19 21 19 21 23 24 26 27 26 28 29 29 28 26 26 25 23 24 23 21 20 24 22 26 39 35 31 25 23 25 29 27 27 27 28 27 28 28 28 47 56 47 47
17 17 20 22 22 23 25 26 28 28 28 29 29 28 26 27 26 25 23 23 18 24 25 29 42 41 32 26 27 25 24 26 28 28 27 27 29 29 36 39 50 47 53
22 23 21 20 21 23 25 28 29 29 29 28 30 29 28 27 28 26 24 23 20 20 28 31 30 31 29 25 22 23 24 25 25 27 27 27 28 30 35 38 54 53 54
19 21 21 24 27 29 30 31 30 29 28 29 29 28 27 28 28 27 25 23 20 19 28 30 33 29 28 23 27 30 31 31 31 31 30 31 30 31 29 42 44 49 44
22 25 25 24 27 31 33 33 32 30 29 29 29 28 26 26 28 28 25 25 20 20 20 28 41 37 31 28 29 29 30 28 32 32 30 30 30 31 32 44 52 48 48
24 26 24 25 25 29 31 31 31 30 28 28 28 28 27 26 24 26 25 25 23 19 22 24 32 38 34 31 29 27 27 27 28 29 29 29 28 26 27 41 54 52 51
27 26 26 25 26 26 27 28 28 29 28 26 25 25 25 24 22 23 24 25 21 20 21 27 34 34 31 29 28 27 25 25 25 26 25 22 19 18 24 35 43 40 39
26 26 28 27 26 25 25 26 28 27 27 27 25 24 23 22 20 20 22 23 20 20 23 26 35 31 37 32 29 26 24 25 25 23 21 18 15 16 22 25 26 31 31
26 26 29 27 27 25 24 23 25 22 21 22 22 22 21 20 18 18 19 19 19 19 22 27 31 32 29 33 32 29 28 26 28 26 24 21 22 23 25 28 31 31 32
20 19 22 22 21 20 20 23 27 25 23 23 22 21 20 19 18 18 21 19 18 17 21 27 30 34 30 32 32 32 32 32 29 28 27 28 29 31 33 33 32 32 33
18 18 20 21 23 22 24 25 27 24 23 23 22 21 19 17 17 16 15 16 16 14 17 23 28 31 31 25 28 35 33 33 32 33 33 34 36 38 38 37 37 35 33

GFSMW_850_spd_135.txt.gz
Wind_Speed
34 28 29 33 33 34 28 40 43 39 37 41 42 36 31 28 27 25 23 22 24 25 27 28 27 26 30 32 30 30 30 29 29 28 26 23 25 27 25 25 28 24 19
30 27 29 28 28 26 33 36 43 38 37 39 40 35 34 32 28 27 25 25 24 25 27 30 32 32 35 36 35 29 29 32 31 32 28 16 24 28 26 30 32 29 24
26 27 30 23 21 18 23 34 37 34 34 31 30 30 29 28 29 30 30 30 30 30 29 32 34 35 36 38 36 29 29 33 35 35 26 11 11 32 33 34 35 33 29
29 28 26 19 14 20 20 23 28 28 24 23 24 24 24 26 29 29 26 27 33 34 34 36 34 32 33 35 34 34 32 30 36 39 39 29 21 15 13 38 37 36 34
34 30 27 22 28 26 23 20 20 21 19 20 21 19 17 19 23 24 26 25 25 31 34 36 36 36 33 33 34 37 37 36 33 38 38 41 31 24 26 22 40 38 37
30 22 25 28 30 31 26 19 18 18 18 17 19 15 17 15 16 19 24 27 26 26 30 33 33 34 37 35 35 37 39 37 35 35 36 38 44 38 32 31 37 47 42
30 29 23 32 30 28 28 23 15 19 16 11 7 7 5 10 14 17 20 20 21 25 29 30 29 29 32 34 35 36 37 36 38 37 39 37 39 41 43 36 33 34 37
26 29 28 35 33 27 23 23 25 13 7 6 3 1 5 9 12 15 17 18 21 20 21 26 30 32 31 30 32 34 35 35 36 37 39 37 41 40 44 43 37 27 33
32 6 28 37 29 24 21 18 19 18 11 9 9 6 4 6 10 12 15 16 18 21 22 20 24 28 30 33 35 37 38 40 35 39 38 37 40 41 44 45 42 41 31
35 15 13 25 27 25 22 21 22 18 13 8 7 5 6 8 9 10 14 17 18 21 24 22 24 27 28 33 37 35 37 34 35 36 35 36 37 38 43 48 50 47 43
29 20 16 23 26 25 24 21 20 13 5 4 6 6 9 8 6 7 12 17 18 18 19 26 23 26 29 27 33 36 38 38 36 33 34 37 36 38 43 46 55 54 51
20 19 27 33 28 25 22 20 16 7 9 12 11 11 9 8 10 11 11 14 17 16 18 22 21 25 27 24 28 36 38 35 34 34 34 37 38 40 35 43 53 52 50
15 25 30 28 25 23 19 17 14 13 11 11 14 15 15 16 15 13 14 14 17 19 17 19 26 19 30 29 25 26 32 34 35 35 37 36 35 38 36 39 36 49 57
27 27 26 28 23 22 23 21 19 18 16 17 18 17 17 19 19 18 17 16 17 19 22 21 22 25 26 34 30 27 29 33 36 37 38 38 37 35 34 35 39 53 49
21 22 23 25 26 27 28 26 23 23 24 22 21 21 21 20 21 21 20 19 19 20 21 21 20 24 26 36 35 31 29 30 35 35 33 33 32 31 30 31 35 42 51
23 27 26 24 27 27 27 28 27 27 27 24 22 21 20 22 21 21 22 22 21 21 20 21 19 24 29 31 37 35 30 26 29 32 30 29 28 27 26 27 33 45 48
18 19 20 21 26 28 29 30 29 27 26 26 26 24 23 21 22 22 22 23 22 22 21 20 25 24 29 32 34 40 33 27 28 29 29 26 23 24 24 24 23 32 52
20 21 23 24 27 28 28 28 28 28 28 26 27 26 25 24 24 23 23 23 22 22 23 22 20 23 27 27 28 37 33 28 26 26 28 27 25 26 24 25 26 30 40
20 24 26 26 26 28 29 29 29 28 28 28 27 27 25 24 25 25 25 25 24 21 22 22 21 22 27 28 27 34 28 28 30 27 28 27 25 25 25 26 28 34 40
23 25 25 23 24 26 28 28 28 28 27 28 28 27 26 26 25 26 26 26 23 24 22 24 19 21 22 28 26 25 30 32 31 29 31 32 30 28 28 27 30 30 37
24 23 24 25 25 25 26 27 27 31 30 28 28 28 27 26 25 26 26 26 24 23 23 23 18 18 21 24 29 37 36 34 32 33 31 31 29 27 27 27 28 31 36
27 27 28 28 27 26 27 28 30 32 31 31 30 29 28 27 26 26 25 24 23 23 23 22 17 18 20 23 33 33 35 33 31 29 28 27 25 25 25 24 25 27 37
27 27 28 29 29 28 28 31 32 33 32 30 30 29 28 28 25 26 26 25 21 21 22 21 17 17 20 23 26 29 31 31 29 27 26 26 23 21 19 18 16 24 35
28 28 28 30 31 30 29 29 32 32 31 31 29 29 28 27 24 22 23 23 21 21 21 17 16 17 19 22 25 27 28 29 30 30 28 24 19 16 16 16 16 24 31
23 26 27 29 29 31 30 29 31 33 31 30 28 28 26 24 22 18 20 22 21 20 19 16 14 17 19 21 23 23 25 28 31 29 26 23 19 20 20 21 24 29 32
25 27 29 29 30 30 30 29 30 31 29 29 28 26 24 21 18 18 16 16 19 17 12 11 9 14 16 20 22 23 24 26 28 30 30 27 26 26 29 31 32 31 33

GFSMW_850_spd_138.txt.gz
Wind_Speed
24 22 23 22 24 26 26 30 32 34 42 49 56 51 48 42 37 34 29 23 23 23 25 29 30 30 30 33 31 30 32 30 25 26 25 24 24 24 24 28 25 26 23
25 24 21 23 26 29 30 31 35 35 42 46 52 50 48 44 36 31 26 25 26 21 22 24 27 29 30 32 33 35 34 30 29 31 25 18 20 26 24 24 27 29 26
28 32 34 36 38 32 28 31 32 35 43 48 50 43 39 33 31 32 30 34 30 29 24 25 27 27 29 34 37 37 32 31 32 34 25 11 14 23 28 28 28 28 30
34 36 35 35 33 32 29 30 25 28 36 42 43 40 37 31 26 32 26 36 29 30 27 27 28 29 30 35 37 36 36 35 32 33 38 29 19 15 12 28 31 30 32
35 36 35 30 26 26 25 24 19 20 26 26 27 19 22 28 33 31 29 32 30 28 28 30 33 33 34 35 36 34 37 38 35 35 38 40 34 26 20 19 29 36 37
35 36 33 31 28 23 19 18 22 21 19 20 20 27 24 29 25 27 29 29 26 25 26 28 32 35 37 37 37 34 33 35 37 38 40 41 41 36 31 26 25 30 43
34 33 32 25 16 20 22 21 20 25 25 19 13 9 11 13 16 16 20 21 24 28 31 31 30 33 34 35 36 37 35 34 41 43 41 39 38 39 37 35 30 27 34
37 38 28 15 23 21 20 25 24 23 20 19 15 4 6 8 12 12 14 17 23 29 29 27 29 29 30 32 33 35 35 36 36 37 38 40 37 36 36 36 34 25 29
34 36 10 16 23 20 19 20 20 20 22 20 15 13 7 4 6 7 9 12 14 18 23 23 25 28 29 32 33 35 34 34 35 36 38 39 35 36 37 36 36 37 23
36 38 23 22 26 29 27 23 23 21 20 16 14 13 4 1 3 4 8 12 14 16 20 21 23 25 27 27 30 33 32 33 33 33 35 36 35 37 35 35 36 39 38
29 37 29 29 24 28 25 22 21 20 19 15 6 7 4 4 3 7 9 11 13 16 18 19 23 27 25 28 30 31 33 34 34 36 37 36 33 35 35 36 35 35 43
24 29 31 34 31 30 29 24 22 21 18 12 9 7 6 6 8 8 10 13 13 14 18 18 21 22 25 28 31 34 33 35 37 38 36 36 34 35 34 35 35 35 40
26 25 34 34 34 36 34 31 25 23 15 11 10 8 8 10 10 11 13 13 13 13 14 20 20 17 23 22 26 30 27 32 36 38 36 36 34 30 31 35 36 36 39
25 29 33 35 35 36 34 33 28 24 18 13 12 13 12 13 13 14 14 15 16 16 16 16 22 22 20 24 24 28 32 27 30 34 35 34 32 34 35 35 32 33 30
27 29 31 34 30 32 33 27 27 26 22 19 16 15 15 15 15 15 15 15 16 16 18 19 18 21 22 21 24 26 32 33 30 29 30 33 34 34 33 35 36 35 32
24 26 28 28 30 33 33 29 26 25 23 21 19 17 17 17 17 18 18 18 18 17 18 18 19 20 23 22 23 26 28 36 35 32 31 34 35 36 35 33 30 29 32
24 27 31 35 33 35 34 33 32 28 25 24 21 19 18 18 18 17 18 19 19 20 19 18 17 18 22 26 23 26 27 33 39 36 32 29 30 28 29 29 27 26 30
24 27 30 29 28 29 28 27 26 27 26 25 24 22 21 20 20 21 20 18 19 21 22 20 18 19 18 23 26 25 28 33 31 36 32 29 27 25 24 24 26 25 30
24 23 24 25 25 27 28 27 27 28 28 28 25 24 24 24 23 23 23 22 21 21 20 20 20 19 19 20 25 28 27 33 30 25 29 28 26 24 24 26 27 25 26
24 24 23 25 25 26 26 27 27 30 31 29 29 29 27 26 25 24 24 24 23 23 22 22 20 20 21 21 20 29 28 33 32 32 33 33 28 26 26 25 27 27 26
27 26 24 27 27 28 28 29 30 33 33 32 30 29 28 27 25 25 24 24 24 24 22 21 20 20 22 21 20 24 27 26 33 39 36 33 27 27 30 29 29 26 26
27 27 26 27 27 28 29 30 30 33 33 31 31 31 30 28 27 25 24 22 23 22 23 22 21 20 23 22 19 21 27 31 30 38 33 31 30 29 29 28 28 26 24
24 26 29 30 30 29 29 31 32 34 32 30 30 30 30 28 26 25 25 24 22 22 23 24 22 21 22 22 19 21 21 27 31 35 35 31 30 26 27 25 24 24 23
24 25 27 28 29 29 28 28 29 31 31 30 29 28 29 28 25 23 23 24 25 23 25 26 24 22 20 20 18 18 20 23 24 26 31 31 29 25 24 22 21 21 22
24 22 23 23 23 24 24 27 27 29 29 28 28 28 28 28 26 23 23 24 22 22 27 28 24 20 19 16 15 15 18 18 22 24 26 26 25 25 22 20 18 19 19
21 19 22 24 26 28 29 28 27 27 28 29 28 27 27 27 27 26 23 17 18 17 21 19 18 16 14 12 13 14 16 16 20 24 24 25 25 24 24 23 23 22 23

GFSMW_850_spd_141.txt.gz
Wind_Speed
24 23 22 18 16 17 21 24 27 29 31 35 37 44 50 54 54 50 44 40 37 35 35 34 33 33 34 37 36 34 31 30 29 27 26 24 24 23 24 25 23 21 24
30 28 28 25 25 27 28 28 27 31 35 39 41 41 48 54 57 51 43 34 32 29 30 31 33 34 35 35 34 36 34 32 31 32 27 21 27 28 26 25 24 25 25
27 37 39 39 38 35 32 32 31 29 34 38 43 42 37 36 48 50 43 33 30 29 28 29 31 32 33 35 34 34 36 37 37 34 26 13 14 24 29 27 28 25 26
36 38 40 41 38 37 37 34 29 29 34 37 40 40 40 39 42 45 36 36 37 40 31 28 31 27 31 33 33 35 36 36 36 35 40 26 18 13 12 24 30 28 28
30 35 41 42 41 38 37 39 29 29 31 34 34 37 36 33 29 28 31 31 34 39 36 31 28 26 37 37 33 35 34 38 37 37 41 41 30 25 17 13 19 28 31
31 35 40 40 39 37 28 29 26 26 20 23 31 35 34 31 25 19 20 29 35 35 35 31 38 36 41 40 35 35 35 39 35 36 37 41 37 36 23 18 17 22 28
28 34 38 39 33 17 19 14 12 16 20 25 28 30 32 23 15 16 13 31 32 29 32 32 37 38 38 36 35 37 35 37 39 36 38 40 43 34 32 30 16 19 24
25 31 38 41 31 21 3 11 13 16 18 23 24 21 22 17 12 15 19 23 19 19 23 27 32 33 33 33 34 35 36 37 38 36 39 38 45 41 38 38 28 19 23
33 33 40 42 37 32 27 18 15 17 16 18 19 19 17 19 19 17 15 14 14 16 19 23 25 27 32 33 34 33 32 36 37 37 37 39 39 40 41 40 38 32 18
30 36 35 39 38 30 26 22 17 17 17 16 16 14 12 8 6 7 9 9 12 15 17 18 19 23 27 30 32 34 33 34 35 36 36 39 41 38 35 38 36 38 34
30 32 34 35 37 35 31 26 22 16 15 15 13 12 11 7 3 2 3 6 7 11 14 17 18 20 23 26 29 31 32 34 36 34 36 34 38 39 38 35 32 34 38
26 29 35 37 37 37 33 31 26 21 19 17 14 10 6 6 4 5 6 8 9 10 12 14 20 21 22 24 28 30 33 34 36 36 35 36 35 38 37 34 32 34 38
26 28 32 37 38 37 34 32 30 26 23 19 13 10 7 6 4 7 9 10 11 12 14 16 17 20 22 21 24 26 30 32 36 35 36 37 36 38 39 32 31 35 36
24 27 31 32 33 33 32 32 30 28 24 21 14 8 6 6 7 9 10 12 12 13 14 15 18 18 22 24 23 22 25 29 32 34 34 35 38 36 37 32 33 35 34
25 26 26 27 29 32 32 25 26 23 19 18 15 12 9 8 9 9 11 13 14 13 14 15 17 18 19 21 24 24 26 30 31 35 32 31 35 37 32 31 32 34 32
24 24 24 26 24 27 28 26 22 21 21 20 18 15 13 12 11 12 11 12 14 13 13 14 16 17 17 20 22 25 27 26 28 38 33 30 32 34 32 33 33 32 32
22 23 22 23 24 26 24 25 24 25 26 22 18 16 15 14 13 14 13 13 15 15 15 15 15 16 18 19 22 25 30 30 30 30 35 38 37 32 31 32 31 31 32
21 21 23 24 24 26 27 26 25 26 26 24 23 23 20 17 16 16 15 15 15 16 18 17 16 15 17 19 21 24 31 33 32 30 32 36 35 34 31 33 34 35 34
19 20 21 23 26 28 28 27 26 26 26 27 26 24 21 21 21 20 19 19 19 18 17 17 18 17 16 18 21 24 24 29 31 34 33 31 32 34 33 31 32 31 29
20 23 22 22 25 28 28 27 25 26 28 29 27 25 24 25 22 22 23 22 21 21 21 20 19 18 19 18 21 22 24 27 32 34 31 32 30 33 31 35 33 33 31
22 23 24 24 25 27 28 26 26 27 28 26 26 27 27 26 24 25 24 23 23 23 22 22 20 19 19 20 21 21 23 25 28 31 34 33 33 35 34 34 33 30 25
23 23 24 24 24 26 27 28 28 29 28 27 27 27 27 27 27 25 23 22 23 22 23 22 22 19 19 20 22 21 20 24 26 29 32 33 36 36 39 35 35 31 28
23 22 23 24 23 24 25 27 27 28 28 27 27 26 25 24 25 26 26 24 22 23 24 24 25 23 21 19 21 22 19 21 25 27 31 29 33 39 42 39 31 31 31
20 21 21 21 22 25 26 27 27 27 27 28 28 26 26 26 24 24 23 23 24 23 21 29 29 28 24 19 17 20 19 18 21 21 25 31 28 32 32 32 30 29 30
20 20 21 23 24 25 26 26 27 27 28 28 28 27 26 26 25 22 24 22 20 21 23 25 28 28 26 20 18 16 15 15 16 16 17 22 24 28 30 29 27 26 27
20 20 20 21 22 23 24 24 25 26 25 25 25 23 23 22 23 23 20 15 17 18 19 19 18 19 17 18 16 13 10 10 11 14 17 18 22 24 27 27 27 26 26

GFSMW_850_spd_144.txt.gz
Wind_Speed
21 23 25 25 25 23 22 21 20 19 20 20 24 25 30 35 35 37 38 37 47 42 42 41 35 31 35 35 35 34 34 27 29 21 21 21 19 18 17 17 18 23 23
27 29 30 30 30 29 28 27 25 25 23 22 24 27 27 28 30 32 37 39 38 44 40 38 37 33 33 30 35 38 37 33 33 32 23 15 22 26 22 20 20 21 25
32 35 35 35 35 35 33 32 30 29 28 28 26 28 26 27 30 37 39 41 47 39 39 37 37 34 26 29 33 36 41 40 39 34 19 11 14 18 21 29 27 24 24
31 32 36 40 40 39 37 34 32 32 30 27 31 31 33 33 35 33 40 40 42 45 43 40 36 29 28 35 28 33 34 38 40 38 39 23 11 14 10 23 31 28 27
30 29 33 33 37 37 30 31 30 29 29 30 31 33 37 36 32 35 36 39 40 40 37 34 33 33 33 37 28 31 30 36 41 40 37 40 26 20 18 13 15 26 30
28 29 33 34 37 28 22 18 19 21 27 26 27 30 34 35 29 27 32 35 32 35 28 27 30 34 32 36 38 41 37 36 41 44 40 37 38 29 25 23 16 19 23
26 26 32 37 36 34 30 24 20 15 11 19 25 26 30 32 29 28 28 24 27 27 29 20 21 27 34 37 25 31 35 40 43 43 42 40 35 33 27 26 21 17 15
23 27 32 36 37 35 36 29 22 19 20 13 5 15 22 25 25 22 19 17 17 18 21 29 31 35 30 34 37 41 41 41 45 45 42 40 41 38 35 30 26 19 19
23 24 29 35 39 38 34 35 25 17 15 19 16 9 14 20 25 24 24 17 15 15 16 18 30 39 35 31 35 41 42 40 44 42 43 42 42 38 39 36 32 31 23
23 25 28 34 38 37 34 33 29 20 18 13 11 12 10 11 12 17 20 19 17 16 21 25 27 24 21 23 30 35 38 40 39 38 42 42 40 41 40 39 38 33 33
22 25 30 33 34 35 36 32 30 24 20 15 16 11 13 11 10 10 11 13 13 14 16 16 18 19 21 21 23 27 32 38 39 38 39 38 40 41 39 43 43 43 37
19 22 25 30 32 34 35 34 29 28 22 12 14 15 15 12 8 5 7 8 8 9 9 11 13 17 19 21 20 24 23 28 34 37 38 39 37 39 40 41 46 44 40
22 23 24 31 32 32 32 33 30 27 28 21 17 6 13 12 10 7 5 2 3 4 8 10 13 14 17 19 22 24 21 27 31 35 37 38 40 38 40 42 42 43 40
23 24 24 26 30 30 31 30 30 26 27 24 20 14 11 11 11 10 8 5 3 5 7 10 13 13 15 16 17 23 25 22 26 30 37 37 41 38 39 41 44 42 40
23 23 24 24 25 28 29 29 27 25 26 25 19 18 17 15 14 12 10 8 6 6 7 10 14 16 18 16 19 21 25 30 26 26 31 30 39 41 38 39 44 44 41
23 23 22 22 23 24 26 27 26 26 26 26 25 22 18 14 14 12 12 11 10 10 9 10 12 13 15 18 20 22 24 26 29 31 32 30 32 36 33 37 39 39 39
21 21 21 21 22 22 23 24 24 24 25 23 22 22 20 18 16 14 13 13 13 13 12 12 13 13 15 18 21 23 24 28 29 30 30 33 27 31 34 41 44 33 35
20 19 20 19 20 20 20 20 20 20 22 22 22 21 20 19 17 15 16 15 15 15 15 15 15 16 16 18 20 23 25 27 29 30 32 31 35 28 37 41 41 40 37
17 18 19 18 18 19 20 18 17 16 17 18 18 21 21 21 21 20 19 19 18 17 17 17 19 19 19 19 19 22 24 25 27 28 31 33 35 35 29 34 35 33 36
15 17 18 17 17 19 20 18 18 19 20 21 22 21 22 22 21 21 21 21 20 19 19 19 19 20 21 21 23 22 23 27 27 27 27 31 35 33 31 34 35 38 37
16 16 16 17 18 18 19 19 20 22 23 22 22 21 21 22 20 20 19 19 20 20 20 20 20 20 21 22 23 24 24 25 30 29 27 25 31 34 35 33 40 43 44
16 17 17 17 16 17 18 18 20 22 22 22 23 23 22 21 20 19 18 18 17 17 18 21 20 19 21 21 23 24 23 23 27 30 29 27 27 32 35 34 36 38 37
18 17 16 17 17 18 18 19 20 21 21 20 20 20 20 20 19 20 19 19 20 19 20 21 22 25 24 22 22 21 22 22 24 25 27 27 27 30 31 37 38 34 42
17 17 18 18 18 18 18 18 19 21 21 21 22 20 21 22 20 19 18 17 20 20 19 20 23 25 25 24 23 24 23 22 22 23 22 22 22 24 28 30 37 37 34
14 15 15 16 17 18 18 18 19 21 20 20 19 18 18 19 19 16 17 17 16 19 19 19 22 24 24 26 25 24 23 22 21 21 19 18 17 18 20 23 28 31 32
15 15 15 16 17 18 18 19 20 22 22 20 19 19 19 19 19 20 20 16 18 17 18 20 22 22 22 22 21 19 21 21 19 17 18 17 16 15 17 20 24 27 29